GFSWCAN_sfc_temp_000.txt.gz
Temp
54 54 54 55 55 55 55 55 54 54 55 55 56 56 57 57 56 59 64 63 57 58 65 63 63 62 66 67 64 66 69 70 75 69 73 75 72 76 73 75 73 72 71 72 73 68 64 84 82 76 78 86 86 88
54 54 54 54 54 54 55 54 54 54 54 55 55 56 56 56 56 56 62 66 64 57 61 63 65 65 63 64 63 67 62 62 67 67 73 73 72 76 72 68 75 70 75 73 75 74 77 83 80 84 84 80 82 83
53 54 54 54 54 54 54 54 54 54 54 55 55 55 56 56 56 55 61 61 62 60 64 64 63 66 69 67 71 61 68 65 65 67 67 71 63 72 69 72 71 73 75 75 72 76 77 80 84 84 84 82 83 85
53 53 53 54 54 54 54 54 54 54 54 54 55 55 56 56 55 54 60 62 60 59 57 62 68 64 68 69 67 68 66 68 67 70 69 69 68 71 74 70 71 77 74 73 74 75 77 81 79 79 81 83 82 84
53 53 53 53 53 54 54 54 54 54 54 54 54 55 55 55 54 58 62 65 63 56 55 63 67 68 68 65 65 66 65 64 67 66 67 68 73 70 75 72 72 80 74 72 71 71 72 74 77 80 79 81 83 82
52 52 52 53 53 53 54 54 54 54 54 54 54 54 55 55 53 61 54 62 66 61 55 58 66 63 67 67 64 63 66 66 67 67 69 71 69 68 67 66 75 76 75 77 72 75 76 76 79 81 80 81 84 84
52 52 52 53 53 53 53 53 54 54 53 54 54 54 54 54 59 57 55 58 56 62 55 57 61 65 65 66 69 67 65 67 67 69 66 68 70 67 67 63 73 74 75 75 78 77 73 77 76 79 80 82 80 83
52 52 52 52 53 53 53 53 53 54 54 54 54 54 53 54 54 57 63 56 59 59 58 53 59 60 65 66 63 70 66 66 65 67 68 64 71 67 61 69 72 74 75 75 76 78 77 77 78 79 81 81 79 80
52 51 52 53 52 53 53 53 53 53 54 54 54 53 56 57 58 61 55 54 64 59 54 57 56 55 68 67 66 65 67 60 68 62 65 68 65 59 66 68 69 72 71 72 75 75 75 74 75 76 78 79 78 80
52 52 52 52 52 52 52 53 53 53 53 53 52 50 50 60 54 56 57 56 57 58 58 54 61 57 62 65 62 63 65 64 59 65 71 61 63 71 74 74 74 73 72 72 68 68 71 72 74 75 76 78 79 80
51 52 52 52 52 52 53 53 53 53 52 52 45 48 59 54 60 57 47 49 53 49 57 60 58 58 64 58 60 63 60 64 55 61 60 62 63 69 68 68 71 69 71 72 73 74 74 74 74 75 76 78 79 79
52 51 52 52 52 53 53 52 53 56 56 54 54 57 56 52 50 43 47 50 49 50 56 56 57 62 61 63 59 60 56 59 50 64 58 56 65 65 66 66 68 70 71 71 73 73 74 74 74 75 77 77 77 78
52 52 52 52 53 53 53 52 53 54 53 52 49 48 50 40 34 36 36 43 49 54 57 56 53 61 59 60 59 57 49 52 62 54 54 63 61 65 64 66 67 70 70 70 70 73 74 75 75 75 75 75 73 72
51 51 51 52 52 53 52 52 53 53 53 45 41 33 39 35 41 49 52 56 55 58 56 57 57 56 61 54 58 47 58 56 48 48 51 64 61 61 63 65 65 64 66 67 68 71 72 73 73 74 73 73 71 70
51 51 51 51 52 52 52 52 53 54 44 40 43 36 43 56 59 59 59 56 57 59 58 57 59 58 57 52 56 52 47 43 50 53 58 61 58 58 59 60 63 63 63 65 68 70 70 70 70 70 72 72 71 67
52 51 50 51 52 52 52 53 52 53 46 42 43 44 54 52 53 54 54 53 60 59 60 60 52 48 48 52 46 45 46 46 54 49 49 50 50 53 50 53 59 59 58 57 63 68 70 70 69 67 66 69 68 66
53 50 50 50 52 52 52 52 52 46 42 41 47 54 54 54 56 56 57 57 61 54 49 52 44 44 53 47 45 52 47 45 45 46 47 48 48 51 54 53 54 56 61 64 66 67 67 69 69 67 65 68 69 68
54 55 52 52 53 52 54 55 49 44 38 48 49 55 54 57 57 57 59 61 57 53 53 45 46 43 46 44 49 47 46 47 47 49 50 51 49 52 52 53 54 54 58 62 64 67 68 67 67 67 67 68 68 67
55 56 52 52 55 54 47 50 50 44 48 56 55 58 56 57 58 61 61 59 60 57 58 44 42 41 48 50 46 46 47 48 48 51 53 54 54 56 53 53 54 53 61 62 64 67 67 67 70 71 71 71 69 70
52 52 52 52 52 51 47 48 57 50 49 51 56 55 56 57 60 59 59 59 58 53 49 46 47 52 51 50 52 49 50 53 53 53 54 58 61 66 64 66 67 68 69 68 69 58 71 72 74 74 73 70 72 70
52 51 52 53 55 54 51 50 50 54 52 48 49 50 49 54 53 54 55 56 48 49 49 54 56 59 58 56 55 59 59 58 55 58 60 65 65 66 69 70 70 70 69 69 68 68 63 69 70 71 70 70 72 72
53 53 50 51 46 45 44 49 47 44 42 42 41 45 44 44 46 47 49 46 46 49 49 49 51 54 57 58 60 63 63 63 63 65 54 59 66 66 64 68 68 67 65 69 69 69 68 72 72 74 72 68 63 72
50 49 46 46 39 37 37 45 39 41 37 40 43 41 42 43 45 48 41 44 45 50 50 50 54 57 57 61 63 62 63 63 68 67 69 66 67 70 70 70 70 68 67 67 71 70 70 52 63 67 71 70 69 69
50 45 40 38 38 35 41 38 40 41 40 41 41 38 42 44 45 43 43 48 52 54 55 57 59 58 59 61 61 61 65 71 70 67 71 69 69 66 70 70 71 71 70 70 70 70 70 69 57 69 69 68 68 67
39 40 41 37 44 44 46 48 49 49 45 49 45 44 46 50 45 46 48 51 56 58 59 63 68 67 65 67 69 69 68 70 68 67 70 71 70 71 71 72 72 72 72 69 68 68 68 69 68 68 68 68 66 66
37 46 43 48 50 49 51 50 51 53 55 52 52 56 58 56 47 43 52 56 59 64 65 65 64 64 64 68 67 68 69 71 70 69 70 71 70 69 67 67 68 70 73 71 68 67 67 67 67 66 66 65 52 62
44 49 53 57 52 54 56 57 59 57 53 52 56 57 58 49 47 53 62 64 63 66 67 68 68 68 68 68 70 71 72 72 69 69 71 72 72 72 70 67 66 70 72 71 70 68 67 66 66 66 66 67 67 67
51 54 50 58 59 63 57 57 55 54 56 64 62 53 50 51 51 61 64 67 70 71 71 71 71 72 70 70 72 72 72 74 73 73 74 75 76 76 72 73 72 49 67 70 70 70 69 68 67 66 65 65 65 67
57 59 64 58 60 60 59 58 58 62 67 64 58 56 57 62 66 67 68 70 73 72 70 70 70 74 74 75 75 75 74 72 67 63 62 64 67 70 73 73 73 73 72 72 53 56 66 66 67 67 66 66 66 66
61 68 61 60 57 56 60 66 64 67 69 68 67 65 65 67 69 73 73 72 70 70 71 72 73 71 70 70 69 70 73 72 69 65 61 61 63 69 70 69 69 70 70 68 68 69 52 54 60 62 59 59 58 59
68 66 62 62 59 63 67 71 71 70 70 68 70 66 65 68 70 72 71 72 74 73 71 70 70 70 68 67 66 65 64 69 68 67 65 65 66 65 65 65 66 67 67 67 67 65 64 61 59 58 57 55 55 50
66 62 62 58 61 68 71 68 67 66 68 66 66 70 69 67 63 68 70 72 71 69 60 66 67 67 69 68 69 68 48 66 66 65 62 61 61 60 62 65 65 65 64 64 64 65 64 63 63 63 62 60 59 57
66 68 66 66 64 61 68 65 65 63 66 66 67 68 67 65 59 67 74 72 69 68 68 69 70 70 68 68 67 65 57 66 58 44 43 41 38 44 56 63 62 62 61 62 63 63 63 61 61 60 60 59 58 56

GFSWCAN_sfc_temp_003.txt.gz
Temp
54 54 55 54 55 55 55 55 56 55 55 55 56 56 56 57 57 60 69 69 64 61 67 69 70 67 71 73 70 71 75 77 78 73 76 78 77 79 79 80 74 73 73 73 75 70 65 90 90 79 80 88 89 90
54 54 54 54 54 55 55 55 55 55 55 55 55 56 56 56 56 57 66 73 71 63 65 71 72 72 69 69 68 74 69 69 73 72 79 80 76 82 74 70 84 73 77 73 73 67 81 89 83 88 88 85 86 86
53 53 53 54 54 54 55 55 55 55 55 55 55 56 56 56 56 57 63 68 68 65 70 68 70 72 77 73 76 64 74 70 70 72 72 76 69 79 73 75 73 77 82 79 77 80 82 83 88 87 88 86 88 90
53 53 53 54 54 54 54 55 55 55 55 55 55 55 55 56 56 56 63 68 66 65 61 67 74 70 74 75 71 74 70 73 73 74 73 74 73 78 75 78 76 80 81 78 78 81 81 83 82 84 85 87 88 90
53 53 53 53 53 54 54 54 54 55 55 55 55 55 55 55 55 58 65 70 69 61 60 68 74 73 73 71 71 72 70 68 71 70 70 71 79 75 78 78 77 85 79 76 74 75 75 76 81 85 84 84 87 87
52 53 53 53 53 53 54 54 54 54 55 55 55 55 55 55 55 61 58 68 71 68 60 63 74 69 72 71 68 68 72 71 72 72 72 77 75 72 70 71 80 84 82 79 76 79 79 80 83 85 83 84 87 87
52 52 53 53 53 53 53 54 54 54 54 55 55 54 54 54 60 55 52 56 57 65 61 62 67 71 72 72 73 71 71 71 72 73 71 72 74 71 70 66 78 80 79 78 81 79 75 80 79 83 83 84 83 87
52 52 52 53 53 53 54 53 54 54 54 54 54 54 54 54 55 58 67 57 59 61 64 58 64 65 72 70 68 78 71 71 70 70 76 70 75 72 65 72 77 79 78 78 79 81 80 81 81 81 83 83 82 82
52 52 52 52 53 53 53 54 54 54 54 54 54 54 59 59 60 61 58 57 66 62 57 62 61 60 73 72 72 70 73 65 75 68 70 73 69 64 70 72 74 75 75 75 78 78 78 77 77 79 80 81 80 82
52 52 51 52 53 53 53 53 53 54 54 54 56 51 50 58 57 59 61 58 60 63 62 57 67 62 68 70 68 69 70 67 63 69 79 69 67 75 79 80 78 76 77 76 71 71 73 73 75 77 78 80 81 82
52 52 52 52 53 53 52 52 53 53 52 55 50 51 63 56 62 54 49 54 58 54 62 64 65 63 71 63 65 69 65 70 60 68 66 67 68 73 77 75 76 75 76 76 77 77 77 76 76 76 77 79 81 82
52 51 52 52 52 52 52 53 52 55 57 55 56 60 65 59 51 46 51 56 55 56 62 61 62 66 66 69 64 66 61 66 55 70 64 61 63 69 71 71 72 74 74 74 75 74 75 75 76 76 77 78 80 81
52 52 52 52 52 53 53 53 53 54 54 61 55 50 50 51 37 41 40 50 54 60 63 63 59 65 64 66 65 63 54 57 69 60 61 66 66 66 64 69 70 72 72 72 72 74 74 75 77 77 77 79 80 80
53 52 52 53 52 53 53 53 53 54 55 49 45 36 43 41 47 54 59 61 62 66 63 58 61 60 60 60 64 53 63 63 54 53 57 60 57 58 59 64 66 67 68 68 71 72 72 73 74 77 78 79 79 77
52 52 52 53 53 53 53 53 54 58 53 45 46 38 48 57 59 63 63 63 61 64 56 54 57 61 59 56 62 57 52 49 56 56 56 59 57 58 58 60 59 62 64 65 67 69 69 72 74 74 77 78 76 73
52 52 54 53 53 52 52 54 57 59 56 50 48 48 56 55 57 60 60 56 66 60 60 59 53 55 52 54 48 49 52 52 51 52 57 57 52 51 55 55 59 60 61 61 63 64 67 67 69 70 73 73 73 72
54 48 52 52 52 52 54 55 55 50 52 45 50 59 58 58 57 61 60 58 68 62 53 59 49 49 59 48 46 57 49 50 49 50 51 50 49 51 56 55 56 56 55 61 63 61 65 69 71 69 65 67 68 68
51 53 52 52 55 53 56 56 55 54 44 53 51 55 63 60 60 63 59 60 59 55 56 51 58 48 48 44 47 50 54 50 49 49 58 57 59 57 55 55 57 57 54 55 56 59 65 65 62 63 66 68 70 68
57 57 52 53 54 54 53 54 55 44 52 56 57 62 61 58 60 62 61 62 62 65 59 58 50 47 53 52 53 54 52 50 48 52 56 59 62 61 56 59 59 58 59 64 66 70 70 69 67 64 64 68 65 65
52 52 52 53 53 49 47 50 59 50 50 54 59 60 58 57 60 63 59 61 57 56 53 53 56 55 53 52 50 54 56 58 54 53 60 63 66 61 67 65 65 64 65 67 68 55 66 66 70 69 70 66 65 65
53 55 52 54 54 53 50 51 54 56 55 53 55 57 57 60 56 56 57 61 57 57 55 59 56 61 59 60 60 62 58 58 57 59 61 58 70 70 69 71 72 70 69 67 68 69 61 70 72 72 67 68 70 68
53 53 51 54 52 49 48 54 49 52 49 45 45 50 49 49 52 54 56 51 49 54 57 59 60 60 61 61 62 62 61 61 63 63 55 59 59 63 66 70 72 68 66 67 68 71 73 75 73 74 74 72 63 69
51 50 47 46 41 38 38 47 41 43 38 40 44 42 42 44 47 50 45 44 45 50 54 60 61 62 61 63 63 64 66 66 58 66 65 65 68 64 69 68 71 69 70 72 74 74 73 56 67 71 73 72 73 72
50 45 41 39 37 35 41 39 42 41 43 39 38 34 36 39 43 39 38 43 50 61 58 59 60 59 60 61 61 64 69 65 65 65 68 68 67 66 72 74 75 76 74 74 74 73 74 73 59 73 73 72 72 72
40 40 40 37 42 40 39 40 39 39 39 41 44 48 48 46 43 44 43 47 54 58 59 55 56 60 65 64 60 65 70 71 69 70 70 75 73 74 74 75 76 77 80 73 72 72 72 72 73 72 72 71 70 70
39 49 45 52 53 50 54 47 48 51 54 53 54 58 57 57 51 46 50 53 59 63 65 63 63 63 63 69 68 71 72 75 73 71 72 74 73 72 70 70 70 73 79 77 73 71 71 72 71 70 71 69 56 66
45 51 59 64 59 58 55 59 60 57 54 53 57 58 59 50 47 55 65 68 68 70 72 73 73 72 72 72 74 75 76 76 74 73 76 77 78 77 74 71 69 73 76 75 74 72 71 71 71 71 71 71 71 71
59 61 58 64 65 67 61 62 61 60 62 66 65 56 54 54 55 65 68 71 73 74 75 77 79 78 76 76 78 77 77 78 78 77 77 77 78 78 77 77 77 52 73 75 74 74 72 71 71 70 69 68 69 70
63 68 68 62 65 64 64 63 63 67 70 67 61 59 60 64 65 68 71 75 78 76 74 73 75 77 76 76 78 78 77 75 70 65 63 64 67 69 73 73 73 73 73 73 59 54 67 67 66 65 64 64 66 66
66 72 66 64 62 60 66 71 69 72 73 72 71 70 69 70 74 76 73 72 71 72 73 74 75 75 72 72 71 72 75 75 72 68 63 62 64 69 70 69 68 70 71 70 70 71 58 62 64 66 65 67 64 64
71 69 65 64 60 65 68 73 74 74 74 72 74 70 67 69 73 75 74 74 75 73 74 72 73 74 72 71 69 68 67 71 70 69 68 67 68 67 66 65 67 69 68 67 67 67 68 67 67 66 67 66 66 62
68 64 63 58 61 70 74 72 69 69 70 70 70 72 69 68 62 66 75 75 73 72 63 70 70 70 72 72 73 72 54 70 69 69 66 65 64 64 64 64 66 66 64 64 64 64 65 64 63 60 59 58 58 59
66 65 68 67 64 62 69 67 64 64 69 66 67 69 69 67 61 67 74 76 72 72 71 71 72 72 71 70 70 69 61 70 61 46 44 43 39 46 57 64 63 62 62 61 61 62 60 60 60 57 54 51 51 52

GFSWCAN_sfc_temp_006.txt.gz
Temp
54 54 54 55 55 55 55 55 56 56 56 56 56 56 57 57 57 58 60 71 66 61 65 67 69 66 68 72 67 73 75 78 77 71 73 75 75 78 77 79 71 73 70 71 73 69 66 90 81 75 79 84 87 88
54 54 54 54 54 55 55 55 55 55 56 56 56 56 56 56 56 57 56 72 74 63 65 71 71 75 73 72 67 71 71 72 72 71 77 79 75 79 69 69 81 73 67 62 67 62 68 86 83 85 87 84 85 85
53 53 53 53 54 54 55 55 55 55 56 56 56 56 56 56 56 56 57 63 67 65 67 69 67 75 79 77 80 65 74 71 72 74 71 75 70 78 69 68 72 71 75 73 64 59 59 79 82 84 86 84 87 89
53 53 54 54 54 54 54 55 55 55 55 56 56 56 56 56 56 56 56 64 66 64 59 67 75 71 77 78 75 76 73 74 74 74 72 73 72 82 75 63 54 66 59 60 71 60 75 77 81 84 85 87 87 89
53 53 54 53 53 54 54 54 54 55 55 55 55 56 56 55 55 58 62 65 69 61 57 62 75 74 75 73 73 74 72 69 70 70 71 70 78 74 78 77 73 82 69 69 65 72 74 74 81 84 83 83 85 85
52 53 53 53 53 53 54 54 54 55 55 55 55 55 55 55 55 58 59 67 67 68 59 61 75 71 73 72 69 70 73 69 69 69 71 76 79 72 68 68 80 83 81 80 73 79 78 80 84 85 82 83 85 84
52 52 53 53 53 53 53 54 54 54 55 55 55 55 55 54 58 53 49 58 56 62 58 60 66 73 74 72 71 71 71 72 73 72 69 69 72 72 68 63 76 81 80 79 81 79 75 79 78 82 82 83 82 85
53 52 52 53 53 53 53 53 53 54 55 55 55 55 54 54 54 57 65 58 58 60 63 57 64 67 74 69 66 75 69 71 70 71 75 71 73 71 64 72 76 78 78 78 78 80 79 79 79 80 81 81 80 80
53 53 52 53 53 53 53 54 54 54 55 55 55 55 57 57 57 58 58 60 65 60 54 61 59 59 75 71 72 70 72 64 73 66 69 73 69 64 71 72 74 76 75 75 78 78 77 76 76 77 78 79 78 78
52 52 52 52 53 53 53 53 53 53 54 55 55 52 49 58 59 60 58 58 58 62 61 56 67 62 70 70 67 69 70 66 62 68 75 68 67 75 78 80 79 78 77 77 72 71 73 73 74 75 76 78 78 79
51 52 52 52 52 53 53 53 52 53 53 56 49 50 59 58 63 61 52 54 58 55 62 63 65 62 72 62 64 69 65 69 60 67 67 65 64 68 75 74 75 76 76 76 76 76 76 75 74 74 75 76 77 79
52 51 52 52 53 53 53 52 52 54 57 53 51 58 64 59 56 50 52 56 57 55 63 63 63 66 66 68 64 65 61 64 56 70 64 60 55 64 67 69 72 73 74 74 75 73 74 74 75 74 74 75 76 78
51 51 51 52 52 53 52 52 52 54 54 57 51 49 51 50 37 44 43 52 54 62 64 65 60 66 66 67 64 62 55 57 69 60 59 55 57 62 63 65 67 69 71 71 71 72 72 72 75 74 73 75 76 77
52 52 52 52 53 53 53 52 53 53 49 45 42 36 44 45 51 55 58 60 64 65 64 66 62 59 64 60 63 55 62 63 55 54 53 55 56 58 61 64 63 64 65 66 67 69 69 70 71 73 74 75 76 76
51 52 53 53 53 53 53 53 54 56 52 47 49 38 49 59 63 60 65 64 65 66 64 62 62 62 60 57 61 58 54 51 57 52 54 56 57 58 59 61 62 62 63 63 65 64 65 65 66 70 73 74 67 71
52 52 54 53 53 53 53 53 57 55 54 50 51 50 56 55 58 63 62 62 66 64 65 63 58 54 55 56 53 51 54 50 49 54 60 60 56 58 56 60 61 62 61 62 60 63 63 64 65 67 69 65 71 68
53 54 53 53 53 53 53 55 55 52 54 50 54 58 59 60 56 60 63 62 66 61 56 55 51 51 62 53 51 56 50 51 55 58 62 59 57 56 57 58 61 60 58 61 62 57 58 58 60 64 63 64 66 67
56 56 53 52 55 55 56 56 53 52 48 55 51 54 53 53 58 59 62 64 61 57 57 52 59 54 49 48 49 52 55 60 60 60 62 61 60 61 59 58 60 60 59 62 62 58 58 60 60 59 65 67 68 67
57 57 53 53 54 53 53 56 58 48 54 57 56 60 62 62 64 65 64 64 63 60 61 56 53 54 52 55 53 56 56 59 59 60 60 62 63 62 60 59 58 60 59 58 59 65 63 64 65 65 64 64 62 65
53 53 53 53 54 51 50 55 62 53 51 55 58 58 59 59 62 63 64 62 62 58 55 53 54 55 57 57 60 59 59 60 56 56 60 65 66 64 64 65 70 69 69 71 71 58 72 70 73 72 72 68 64 63
51 56 53 54 53 55 53 53 54 55 55 55 61 54 58 62 59 58 58 64 59 56 54 59 58 62 61 60 62 63 59 58 56 57 58 60 65 66 67 69 67 71 70 68 69 69 60 72 73 75 74 72 70 64
51 54 53 53 51 52 49 52 49 53 52 51 53 56 52 53 54 53 57 57 56 58 60 59 58 61 58 60 60 59 59 58 60 58 53 58 65 61 66 68 71 70 71 71 71 72 73 75 74 74 73 70 67 73
51 50 48 48 42 39 41 51 46 48 41 43 48 47 48 47 47 53 47 48 50 54 58 61 61 62 61 61 60 57 61 63 59 60 60 63 63 66 72 72 74 71 72 72 73 73 72 62 69 73 73 73 72 72
49 44 40 38 39 36 41 40 43 41 42 40 40 36 39 42 44 40 36 42 52 56 58 59 59 55 55 57 57 61 58 62 67 70 70 71 71 71 73 74 76 77 76 76 74 73 73 73 63 73 73 73 72 72
39 38 36 32 36 36 38 39 39 36 34 37 34 37 39 42 39 41 42 48 51 52 54 56 56 59 58 63 68 64 70 72 71 69 72 73 73 73 73 75 75 76 78 76 73 73 72 73 73 72 72 71 70 70
36 47 41 47 39 42 48 44 42 43 48 46 49 53 48 48 49 45 51 55 56 56 58 63 67 69 68 69 68 71 72 76 74 71 73 75 75 73 71 70 71 72 77 75 73 71 71 71 71 71 71 70 58 67
48 56 58 66 66 64 59 62 63 61 58 57 58 59 58 51 49 53 64 69 69 71 74 75 74 73 72 74 76 77 78 78 75 75 77 76 77 75 72 69 67 68 73 74 73 72 70 70 70 70 70 71 71 70
63 66 62 66 66 68 63 64 62 61 62 66 65 57 54 52 54 65 66 72 74 75 75 77 79 79 76 76 78 78 77 78 78 76 76 75 76 76 74 74 73 53 69 71 70 71 70 69 67 66 65 65 67 69
66 69 69 64 66 66 65 64 64 67 70 66 60 59 61 67 70 68 71 75 77 76 73 73 74 78 78 78 77 76 76 75 69 64 63 63 65 67 71 71 70 69 69 70 57 57 63 65 65 67 67 67 69 69
65 72 66 65 62 62 67 72 69 74 74 73 72 69 68 68 72 76 74 74 72 72 74 75 75 74 72 71 71 71 75 75 72 67 62 62 64 68 68 67 66 66 67 67 67 67 57 63 63 68 66 65 63 60
71 69 67 66 65 68 72 75 77 76 76 74 74 69 67 70 74 76 75 75 75 75 74 72 73 73 71 70 68 67 66 71 71 70 68 68 67 66 65 65 65 65 66 64 64 64 63 62 62 62 63 60 55 54
62 63 61 53 59 71 74 72 72 71 70 64 68 71 71 68 63 69 75 75 73 71 63 70 70 70 72 71 72 71 53 70 69 68 66 65 64 64 64 63 64 64 62 62 62 62 61 59 59 59 58 56 54 53
66 67 68 67 66 64 70 68 66 63 67 65 69 70 68 66 61 69 76 76 73 73 73 72 72 72 70 69 69 68 60 69 61 47 47 42 42 49 58 63 63 62 60 60 60 61 59 57 56 56 55 53 52 51

GFSWCAN_sfc_temp_009.txt.gz
Temp
54 54 54 54 55 54 55 55 55 55 56 56 57 56 56 57 56 54 54 59 56 53 56 62 65 57 59 59 53 59 62 65 63 57 59 59 61 66 63 63 57 59 55 52 56 51 49 71 73 64 65 68 74 75
54 54 54 54 54 54 54 55 55 55 55 56 56 56 56 56 56 55 52 60 62 55 57 64 66 69 66 66 60 60 58 58 61 57 59 59 61 62 60 55 64 51 55 57 55 56 62 64 62 70 73 69 71 73
53 53 53 54 54 53 54 54 55 55 55 55 56 56 56 56 56 55 52 56 56 53 59 60 59 70 73 72 73 55 61 62 60 62 57 60 59 65 58 52 59 61 59 55 56 58 60 62 64 66 66 70 72 74
52 53 53 54 54 54 54 54 54 55 55 55 55 56 56 56 55 55 52 58 56 56 50 58 72 66 73 71 70 68 64 65 63 62 57 57 54 65 60 57 54 56 57 55 55 59 63 65 67 67 73 74 77 77
53 52 52 53 53 54 54 54 54 54 55 55 55 55 56 55 55 54 56 59 61 54 49 53 64 70 71 68 68 68 63 60 59 57 57 57 61 60 64 64 57 61 55 52 48 57 56 58 64 75 73 74 75 74
53 52 52 52 53 53 53 54 54 54 54 55 55 55 56 55 54 53 52 61 60 58 51 50 65 64 67 67 65 63 62 60 60 58 59 63 65 61 55 56 66 64 65 63 56 61 62 68 72 76 73 74 75 73
52 52 52 52 53 53 53 53 54 54 54 54 55 55 55 54 53 49 48 55 55 55 50 51 55 65 68 65 64 62 63 61 61 59 58 59 61 61 57 50 64 67 67 67 71 70 67 68 66 72 73 75 74 75
52 52 52 52 52 53 53 53 53 53 54 54 55 55 54 54 52 50 59 57 55 52 54 48 54 58 66 58 57 65 59 59 59 59 61 59 60 59 53 60 64 67 68 67 68 70 68 67 67 68 71 72 70 69
53 53 53 53 53 53 53 53 54 54 54 55 55 55 53 52 53 58 60 57 58 53 47 53 51 51 66 61 62 61 62 55 62 56 58 62 58 54 61 64 65 65 63 64 68 69 68 66 66 67 68 69 66 66
52 52 52 52 53 53 53 53 54 53 54 55 52 49 46 56 61 60 56 52 52 55 53 50 58 54 62 60 58 58 59 56 52 59 63 57 55 58 65 67 66 67 67 68 63 60 62 62 64 64 65 66 66 66
52 52 52 53 53 53 53 53 53 53 53 52 48 45 53 59 58 55 50 49 51 50 55 55 56 54 63 53 54 58 53 57 52 56 57 55 48 55 61 61 64 66 67 67 66 66 65 64 63 64 64 66 67 66
51 51 52 52 52 53 53 52 52 52 52 48 47 52 55 54 51 47 47 51 52 50 57 55 57 59 58 59 55 56 53 56 51 62 57 47 50 56 58 59 61 62 64 65 66 64 65 66 66 64 64 65 64 65
51 51 52 52 53 53 53 52 52 53 52 52 48 47 47 47 37 42 42 48 49 57 58 58 54 58 57 58 56 54 52 50 60 53 47 47 52 55 56 58 59 62 63 63 63 64 65 65 66 65 63 65 65 64
52 51 52 52 53 52 52 52 53 53 47 44 42 33 40 42 48 51 53 55 59 60 58 59 55 55 57 53 56 52 55 56 51 49 41 49 51 53 55 58 59 59 60 61 61 62 62 62 62 63 64 64 64 63
52 52 53 53 53 53 53 52 53 52 46 43 47 36 45 54 59 59 61 59 59 61 58 56 56 56 54 53 54 52 52 49 49 44 48 51 53 55 53 56 58 59 58 58 60 60 60 60 59 60 61 61 59 56
52 53 52 53 53 53 53 53 54 53 50 49 50 46 51 50 53 58 56 56 62 59 59 58 54 51 52 52 51 50 51 45 46 51 54 54 53 53 53 55 57 57 57 58 58 58 58 58 57 56 59 59 59 58
52 53 53 53 53 53 53 53 54 50 51 49 48 51 46 48 48 57 58 57 62 59 52 54 50 50 56 50 49 51 45 48 52 53 55 55 54 54 55 55 56 57 57 57 57 58 58 58 58 58 58 58 59 61
52 54 53 53 54 54 56 54 51 51 48 52 48 48 50 50 54 57 60 60 58 54 52 50 53 50 49 48 45 51 52 55 57 55 56 57 57 57 57 57 57 56 55 57 57 58 58 57 58 57 58 59 60 59
55 55 53 53 53 51 50 54 56 46 51 51 55 49 51 56 59 61 61 60 59 60 57 54 51 48 47 50 51 53 53 55 54 55 56 57 57 57 57 58 58 58 58 58 58 59 59 59 60 60 59 59 57 58
53 53 53 53 53 48 49 52 59 53 47 51 56 53 57 57 60 61 60 60 59 57 54 52 50 50 51 54 56 56 57 57 54 53 55 56 58 59 58 59 60 61 61 61 62 58 61 61 63 62 63 60 59 58
52 56 53 54 54 51 50 50 50 50 51 49 51 54 54 60 58 57 57 61 56 54 53 56 57 57 58 57 57 56 55 56 54 54 53 53 57 59 60 62 62 62 61 61 62 62 60 63 63 65 62 61 61 63
50 53 53 54 49 51 49 51 47 52 50 50 51 51 49 48 49 48 55 54 53 56 56 55 55 56 55 55 56 57 56 57 56 56 53 55 57 58 59 62 63 62 62 62 63 62 62 63 65 64 63 62 60 62
51 51 48 49 43 39 40 51 46 48 42 43 48 46 45 45 46 52 47 49 51 55 55 55 56 57 55 57 58 58 57 56 55 58 60 61 62 62 62 63 66 64 63 63 64 64 62 59 60 63 64 62 62 62
50 43 40 39 39 36 42 41 45 42 43 41 40 37 41 42 44 41 38 42 46 53 54 55 55 53 54 55 54 55 57 61 61 62 64 64 62 62 64 65 66 67 65 66 66 65 65 64 60 64 64 63 63 63
36 36 35 33 37 36 38 40 40 39 36 38 36 35 39 42 39 40 43 46 50 51 52 53 54 55 53 57 61 62 64 64 63 62 64 65 65 66 66 66 66 67 68 67 64 64 63 64 64 64 66 65 63 63
34 39 35 40 40 37 39 39 38 37 38 37 39 46 45 43 43 43 48 53 54 56 56 57 58 59 60 62 63 65 66 69 67 65 66 68 66 65 62 61 62 60 67 66 64 63 63 64 63 63 63 62 56 62
41 51 47 50 52 50 50 55 54 51 48 51 52 50 50 47 47 52 56 58 62 64 66 66 64 65 67 67 66 68 69 69 67 66 69 69 70 69 65 62 59 58 64 65 63 63 62 62 62 62 62 62 63 62
61 63 60 63 63 66 61 60 59 57 59 62 61 55 53 52 51 60 63 65 67 70 70 70 70 70 70 71 72 72 71 72 70 70 70 69 69 68 65 66 63 50 61 62 61 62 61 60 59 60 60 60 61 62
64 68 66 61 64 64 63 61 61 64 67 64 58 55 56 61 66 62 63 70 71 71 70 70 70 73 72 71 70 71 71 69 63 60 58 58 60 62 65 64 63 62 62 62 54 52 56 56 58 58 59 59 57 57
65 71 65 64 61 60 64 70 67 70 71 69 68 65 65 66 69 72 71 70 67 69 70 70 70 68 66 66 65 66 69 68 66 62 57 56 59 62 62 60 60 61 60 61 60 60 53 57 56 58 57 56 55 53
68 64 60 62 63 67 71 73 72 72 71 69 70 66 64 66 70 71 70 70 70 71 69 67 68 68 66 64 63 61 61 65 66 64 62 62 62 61 59 59 60 60 60 59 58 58 57 57 55 54 54 53 52 50
67 63 58 55 61 69 72 69 67 66 67 65 61 66 65 61 60 65 70 71 69 67 61 66 65 65 66 67 66 66 53 65 64 64 61 61 59 59 60 60 61 60 59 57 57 57 57 56 55 53 50 50 50 49
64 67 64 60 54 61 67 64 57 58 62 58 57 64 65 63 59 66 72 72 68 68 66 66 68 67 65 65 64 64 58 65 54 47 44 45 46 50 53 59 58 58 57 56 56 55 53 53 52 51 51 49 47 47

GFSWCAN_sfc_temp_012.txt.gz
Temp
54 54 54 54 54 54 54 54 55 55 54 56 56 56 57 56 56 51 50 54 49 45 47 52 55 51 53 53 48 54 56 57 57 50 49 51 52 54 54 54 50 48 49 47 48 48 47 66 65 58 60 64 70 70
53 54 54 54 54 54 54 54 54 55 55 55 56 56 56 56 56 54 46 54 56 45 47 56 58 61 61 60 53 52 52 53 53 51 52 51 53 56 53 46 55 50 52 50 49 48 57 59 59 60 60 63 68 69
53 53 53 54 54 54 54 54 54 54 55 55 55 56 56 56 56 54 49 47 47 44 47 47 50 60 65 65 64 50 51 56 52 56 50 50 51 52 48 50 53 57 57 52 54 56 57 61 64 65 66 64 67 68
53 53 53 53 54 54 54 54 54 54 55 55 55 55 56 56 55 55 45 46 46 46 39 46 63 59 65 65 66 61 56 56 55 52 49 47 48 54 51 52 51 55 56 53 53 56 59 64 64 65 69 69 69 69
53 53 53 53 52 53 54 53 54 54 54 54 55 55 55 55 54 51 48 47 52 47 40 43 54 60 63 63 62 61 55 51 50 49 48 49 50 52 50 52 49 55 54 50 48 56 56 57 61 66 67 67 70 68
52 53 53 52 52 52 53 54 54 54 54 54 55 55 55 54 53 47 45 49 53 49 40 37 53 57 60 62 60 58 56 52 50 49 49 52 55 53 49 49 54 56 56 57 56 58 58 63 65 69 69 70 72 71
52 53 53 52 52 53 53 53 53 54 54 54 54 54 54 53 45 42 43 51 51 47 41 40 45 55 61 58 58 55 57 55 52 48 49 51 53 52 49 46 55 55 58 61 60 62 60 66 63 68 70 70 69 70
52 52 52 53 53 52 53 53 53 53 53 54 54 54 53 53 50 43 51 53 51 44 43 39 45 51 58 53 52 56 52 54 53 51 50 50 52 50 48 53 53 58 61 61 61 61 60 61 64 64 68 68 66 64
52 52 53 52 53 53 53 53 53 53 53 54 54 54 47 43 42 46 59 55 49 46 40 42 41 43 55 54 54 55 54 49 55 51 50 52 45 45 48 50 55 56 56 56 61 61 61 60 60 61 63 63 62 62
52 52 52 52 52 53 53 53 54 53 53 54 48 45 39 48 59 56 48 43 43 45 43 39 47 45 51 51 51 53 53 50 49 53 56 47 45 50 51 52 54 57 59 61 58 56 57 57 58 59 61 62 62 61
52 52 52 52 53 53 53 53 53 53 52 45 43 43 47 56 47 43 40 40 43 41 44 45 47 45 54 48 47 50 48 50 48 52 51 43 42 46 52 55 57 58 60 57 56 54 54 54 56 57 59 61 61 61
51 51 52 52 52 52 53 52 52 46 46 47 46 47 46 44 40 38 38 43 43 43 47 47 50 51 52 52 50 50 49 50 47 54 46 42 47 48 52 55 57 56 58 58 59 58 58 60 58 57 57 57 58 59
51 51 52 52 52 52 52 52 52 52 51 49 45 43 40 39 29 36 35 40 42 48 49 49 49 50 51 51 49 48 47 45 52 45 43 44 47 50 50 53 53 56 57 58 57 58 59 59 60 58 57 58 58 58
51 52 52 52 52 52 52 52 52 51 47 42 39 33 34 34 40 40 40 42 46 48 49 49 47 47 48 49 47 46 49 50 45 40 40 43 45 47 49 52 52 53 55 55 55 57 57 57 57 58 58 58 57 55
52 52 52 52 52 53 52 52 53 48 44 39 41 34 40 45 47 49 48 47 50 50 49 49 48 49 47 47 47 48 48 42 44 42 43 45 47 47 48 50 50 51 52 52 54 54 55 55 55 54 56 55 55 54
53 52 50 53 53 53 52 51 49 48 44 42 44 41 42 42 45 46 46 45 50 49 49 48 44 44 45 45 46 44 45 41 43 45 47 47 48 48 47 49 51 52 51 51 52 53 54 54 53 52 54 55 55 54
53 45 52 52 53 53 53 48 47 46 45 45 41 44 43 41 41 44 46 46 49 48 43 44 43 43 47 43 42 44 41 45 45 47 51 49 49 49 49 50 53 55 53 52 51 52 52 54 54 53 52 54 55 55
45 48 53 53 51 50 46 46 45 45 44 45 40 40 42 43 42 45 46 48 46 44 44 43 45 42 40 40 39 46 44 45 52 48 48 49 50 50 52 52 53 52 53 53 51 51 52 52 50 51 52 54 53 53
48 49 52 53 50 45 43 46 46 39 43 45 45 43 43 46 48 48 47 48 47 47 47 44 43 39 40 42 43 44 45 45 45 48 48 50 50 50 51 51 53 52 56 52 51 51 51 52 52 52 52 52 51 51
52 53 53 53 52 42 42 42 48 42 40 41 43 45 42 44 48 47 48 48 46 45 44 43 44 45 44 45 46 46 47 48 47 46 47 49 52 51 50 51 52 53 54 54 53 52 52 52 52 53 54 53 51 52
52 50 52 49 46 45 43 41 41 41 42 40 43 43 45 45 47 44 43 46 44 42 43 43 44 45 47 47 48 49 49 49 47 47 48 48 50 51 53 53 52 52 52 58 53 53 52 54 54 54 54 54 53 54
48 53 46 49 45 45 42 43 39 41 40 40 40 41 40 39 40 40 43 41 41 45 44 44 45 46 47 48 49 54 54 54 54 53 50 51 50 51 53 53 52 54 57 58 56 56 55 54 54 55 55 55 53 54
50 48 44 45 40 37 36 43 42 43 38 38 41 42 42 41 40 43 39 40 41 45 46 47 48 52 52 54 54 54 55 54 52 52 53 54 57 58 53 54 54 52 55 58 55 58 54 53 54 55 55 55 54 54
49 41 38 38 39 35 41 40 41 41 41 39 38 35 40 40 41 40 39 40 43 47 49 50 52 50 51 52 50 51 52 51 51 52 53 51 51 54 52 53 55 53 53 53 54 55 55 55 54 55 55 55 55 53
37 36 36 34 37 35 36 39 40 39 37 38 37 37 39 42 39 41 41 44 47 48 48 50 49 49 48 49 50 52 55 54 52 51 59 58 58 53 53 54 53 52 53 53 52 52 52 52 53 54 54 54 53 54
33 38 34 37 37 36 39 36 37 38 38 38 39 44 43 41 41 40 42 45 46 48 49 49 49 51 52 54 52 57 59 56 58 59 56 55 53 50 49 48 47 49 52 51 50 52 53 52 52 53 53 54 50 53
37 42 40 42 43 43 43 45 45 42 41 40 42 43 43 41 43 46 47 49 53 56 56 56 55 55 55 58 56 57 61 60 55 54 53 56 54 53 51 48 47 48 51 54 52 52 51 51 51 51 51 51 52 51
45 50 49 44 45 48 49 47 45 46 48 51 51 45 46 46 47 51 53 58 59 61 61 60 59 57 56 54 54 56 55 55 55 54 53 53 52 52 51 50 49 47 50 51 51 50 50 49 49 50 49 47 47 48
53 58 56 54 55 54 52 51 50 51 52 50 47 47 48 52 54 54 59 58 61 59 57 56 56 57 57 56 57 56 54 53 50 48 47 45 45 47 49 49 49 49 48 49 47 48 50 49 49 48 49 47 47 46
54 56 53 55 53 52 54 55 53 55 55 55 55 54 54 54 57 58 58 58 57 56 55 55 55 56 52 51 50 52 53 53 50 48 45 45 46 48 47 48 48 48 48 48 48 49 48 48 47 47 47 44 43 42
54 54 53 52 52 54 59 59 60 58 58 57 57 53 52 54 57 59 59 58 59 58 56 54 54 53 52 50 49 48 47 51 51 50 49 48 48 48 48 48 48 48 47 48 48 47 47 46 47 44 44 43 43 41
55 54 51 51 52 55 58 54 53 57 59 56 55 58 56 53 49 54 58 58 56 54 53 53 52 51 53 53 53 52 49 49 50 51 50 48 47 48 47 46 47 48 48 48 47 46 45 43 43 43 43 43 42 42
55 56 54 52 52 52 56 56 54 53 54 51 51 53 53 52 52 57 63 61 56 53 52 53 53 53 52 53 52 51 49 50 49 47 46 45 43 43 43 44 45 48 46 45 44 43 42 42 41 39 40 40 40 39

GFSWCAN_sfc_temp_015.txt.gz
Temp
53 54 54 54 54 54 54 54 54 54 55 55 56 56 57 57 56 48 48 51 46 43 45 51 53 48 48 50 46 50 49 51 48 45 47 48 49 50 51 51 47 47 46 44 44 44 46 64 62 58 58 63 63 63
54 54 54 54 54 54 54 54 54 54 55 55 55 56 56 55 55 53 46 51 53 44 43 52 54 58 56 55 51 50 50 48 48 45 47 46 48 49 48 46 54 48 51 49 47 47 54 57 55 58 58 58 62 65
53 53 53 54 53 53 54 54 54 54 54 55 55 55 55 54 55 53 49 47 47 43 43 45 49 57 56 59 63 50 52 53 51 53 48 49 47 48 45 47 52 55 55 51 52 54 55 58 59 61 61 60 63 65
53 53 53 54 54 54 53 54 54 54 54 54 55 55 55 55 55 54 47 45 42 43 39 44 58 54 59 56 59 61 58 57 55 54 48 47 46 50 46 49 50 54 56 52 51 57 58 62 61 61 63 65 65 67
53 53 53 53 53 53 53 53 54 54 54 54 54 54 54 55 54 50 43 44 47 44 40 41 52 56 54 57 61 61 57 53 51 50 50 47 49 51 48 48 49 54 51 48 49 55 55 57 62 66 65 65 67 67
53 53 52 53 53 53 53 53 54 53 54 54 54 55 54 54 53 43 43 44 50 51 41 37 49 51 54 56 56 54 54 53 51 51 52 53 54 50 45 44 51 52 56 55 54 59 58 62 65 68 67 67 68 66
52 52 52 53 52 53 53 53 53 53 53 54 54 54 54 53 45 39 41 47 51 50 42 39 41 51 56 52 53 52 52 51 52 50 51 50 53 51 45 42 49 54 57 58 58 60 58 61 59 63 66 66 65 66
52 52 52 53 53 53 53 53 53 53 53 53 53 53 53 53 49 43 50 52 51 45 42 36 39 47 50 49 50 52 51 49 51 51 51 49 48 46 41 47 51 55 58 58 58 59 58 59 61 61 61 63 62 61
52 52 52 52 52 52 53 53 53 53 53 53 54 54 46 43 39 46 56 54 48 46 39 40 38 40 52 51 51 52 50 48 52 49 47 49 48 43 47 44 47 51 51 52 56 58 59 58 57 58 59 59 58 58
52 52 52 52 52 52 53 53 53 53 53 53 47 43 40 47 58 54 46 43 42 43 42 38 42 41 48 48 49 51 51 48 46 48 51 46 45 51 47 47 48 51 52 54 53 51 53 53 54 54 55 56 57 57
52 52 51 52 52 53 53 53 52 52 51 44 42 42 47 53 45 41 38 38 40 40 40 41 43 43 51 47 47 50 46 47 45 47 46 45 43 45 48 49 51 51 53 53 53 51 51 50 52 53 54 56 56 56
51 51 52 52 52 53 53 52 52 48 46 46 45 46 44 42 38 36 35 40 40 41 43 45 48 47 50 50 49 49 48 48 44 49 44 42 46 47 49 50 51 51 54 54 55 54 55 56 55 54 54 54 55 56
52 52 52 52 52 52 52 52 52 52 50 47 43 40 38 37 29 34 34 38 38 44 46 48 48 46 50 50 48 48 47 45 50 43 42 44 47 50 49 50 51 53 54 54 54 55 55 55 56 55 54 55 55 54
52 52 52 52 52 52 52 52 52 50 46 41 38 32 33 33 37 39 40 40 44 45 47 47 47 45 46 47 46 47 47 49 42 40 39 44 46 47 49 51 51 50 51 52 52 53 54 54 53 55 55 54 54 53
52 52 52 52 52 52 52 52 52 47 42 38 41 34 39 44 45 46 47 45 47 46 46 48 48 47 44 46 45 47 45 39 42 40 42 44 46 46 46 48 48 49 50 50 51 51 52 53 52 52 53 53 53 52
52 51 48 52 53 53 52 49 46 45 42 42 44 40 43 41 42 44 45 44 47 45 47 46 44 43 43 42 43 41 43 39 41 42 44 45 46 47 47 48 49 50 50 49 49 51 51 51 51 51 52 53 53 53
50 43 52 52 53 53 52 45 44 44 42 45 41 44 42 41 40 42 43 45 47 45 41 43 41 41 44 41 39 42 42 45 44 47 46 46 46 47 48 48 51 51 50 50 50 50 51 52 51 52 51 52 52 53
43 46 53 53 51 48 45 44 43 44 42 42 40 41 41 42 42 44 45 45 46 42 42 42 43 40 38 38 38 44 42 43 45 46 46 47 48 48 49 48 50 50 50 51 50 50 50 50 50 49 49 51 51 51
47 48 52 53 50 43 43 44 45 39 41 41 41 41 40 41 43 44 44 46 45 45 45 42 40 38 39 42 41 42 43 43 44 45 47 48 48 49 49 50 51 50 51 50 50 50 50 50 49 48 50 49 49 49
53 52 53 53 51 41 41 40 44 40 38 40 45 41 39 40 42 43 44 44 42 43 43 41 40 42 42 43 44 44 46 46 45 45 45 47 48 49 49 49 49 49 49 51 51 48 50 51 51 49 50 50 49 50
49 48 51 48 44 43 40 39 39 39 39 38 39 39 39 42 40 40 39 41 42 39 40 42 43 44 45 45 46 47 48 46 45 46 45 46 49 48 49 54 53 53 53 54 52 54 48 50 51 51 51 51 51 51
45 51 45 47 42 40 38 39 37 38 37 37 38 39 38 37 37 37 39 38 38 40 41 42 42 43 45 48 49 52 52 53 49 49 48 49 48 48 51 50 49 51 51 50 49 49 49 50 49 50 51 51 50 50
49 45 41 42 38 35 35 41 40 39 36 36 38 37 36 37 38 40 37 37 39 41 42 43 45 46 50 52 51 52 52 52 50 50 51 51 53 51 50 52 51 49 49 49 48 48 49 48 50 51 51 51 50 50
48 39 36 38 38 36 38 38 38 40 40 37 36 34 38 39 43 41 40 42 43 45 47 48 49 49 51 51 50 50 51 51 49 52 52 49 48 50 49 47 48 48 47 47 47 48 49 50 48 51 50 51 50 49
38 37 36 33 37 36 37 39 39 38 36 39 37 38 40 42 40 41 41 44 46 47 48 49 48 48 48 48 47 48 50 49 48 49 50 49 48 47 47 46 46 46 47 47 47 48 48 49 50 52 51 50 49 49
33 39 34 38 37 37 38 37 38 38 39 39 40 43 43 41 41 41 44 47 49 49 48 47 47 48 48 47 48 50 50 50 52 51 50 48 49 47 45 44 44 46 47 46 46 47 48 48 48 49 48 47 44 47
36 40 40 40 41 39 41 43 41 39 39 38 39 43 42 42 41 46 47 49 48 51 52 54 52 50 48 53 54 51 49 50 49 48 48 47 47 48 47 46 43 46 47 49 47 47 47 47 47 47 46 45 45 45
43 43 40 41 42 42 42 42 42 41 44 46 43 42 45 44 43 50 51 52 53 53 52 53 53 54 52 50 49 50 49 49 50 49 47 47 46 46 46 46 46 44 45 46 45 47 46 46 46 46 46 44 43 44
43 48 47 43 43 45 44 46 46 48 49 47 46 45 47 50 52 52 53 51 53 56 52 53 52 52 51 50 50 49 49 48 47 44 42 42 42 45 45 45 45 45 44 45 45 44 45 45 45 44 45 44 43 42
50 50 51 52 48 46 49 51 51 52 51 50 51 50 51 54 56 56 56 53 52 49 49 49 47 47 47 47 46 48 49 46 45 46 43 43 43 44 43 44 44 44 43 44 44 44 44 44 43 43 43 41 40 39
49 50 49 49 49 50 53 54 54 54 57 55 56 52 50 51 52 57 53 50 51 51 51 50 49 47 47 46 45 44 43 46 45 46 45 43 43 44 44 43 42 42 42 43 42 41 40 40 39 39 40 40 41 40
49 48 46 46 47 51 53 53 51 52 55 53 50 51 51 51 47 53 57 58 54 52 48 48 48 48 48 48 46 45 43 43 44 45 44 43 43 43 42 41 41 43 43 42 41 40 40 38 38 38 38 38 37 37
51 50 52 51 48 51 49 53 50 48 51 49 47 49 46 44 43 48 52 51 49 49 45 46 46 47 46 45 45 45 43 44 43 42 42 40 39 40 40 40 42 43 41 40 39 39 38 38 36 36 36 35 35 35

GFSWCAN_sfc_temp_021.txt.gz
Temp
54 54 54 54 55 54 54 55 55 55 55 55 55 56 56 56 56 50 51 49 45 42 47 50 51 44 46 47 42 50 49 51 50 49 52 55 54 60 61 64 62 58 55 51 55 52 55 65 67 63 66 69 72 73
54 54 54 54 54 54 54 55 54 55 55 55 56 56 56 56 55 53 47 49 49 42 46 53 52 53 52 52 48 51 48 46 49 48 50 50 53 56 56 56 62 57 61 50 51 56 63 65 64 67 70 69 71 73
53 53 53 53 54 54 54 54 54 55 54 55 55 55 54 55 55 53 50 50 46 41 47 49 49 57 60 58 58 45 50 52 52 55 49 49 50 56 53 56 58 59 62 54 57 60 62 65 68 70 71 69 71 73
53 53 53 53 53 54 53 54 54 54 54 55 55 54 55 54 55 55 49 53 48 45 37 47 60 54 62 62 57 55 55 50 48 52 48 49 51 57 55 55 57 54 60 56 54 54 61 64 66 68 69 70 70 71
53 53 53 53 53 53 54 54 54 54 54 55 55 55 55 54 54 52 51 50 54 46 37 42 52 58 61 58 56 55 55 49 45 43 49 48 57 55 54 54 47 51 51 56 53 58 58 61 63 66 65 65 67 69
52 53 53 53 53 53 54 54 54 54 54 54 54 54 54 53 52 51 44 46 50 51 40 37 53 53 58 57 55 53 50 51 52 47 47 56 56 56 51 48 51 52 55 55 58 60 61 65 67 67 65 66 67 67
52 53 53 53 53 53 53 54 53 53 53 53 53 53 53 53 51 46 45 45 50 49 40 38 42 55 58 58 57 54 55 53 55 51 49 58 54 57 50 43 48 54 57 58 62 64 59 65 59 66 68 67 67 68
53 53 53 53 53 53 53 53 53 53 53 53 53 53 53 52 51 47 48 50 50 44 44 37 40 49 60 57 55 57 53 54 54 57 56 55 56 54 43 48 51 56 58 57 57 61 59 61 66 65 65 66 64 64
52 52 52 52 53 53 53 53 53 53 53 53 53 53 51 49 46 47 52 55 52 46 40 39 40 45 59 56 55 54 56 52 58 53 55 52 48 42 46 46 49 54 55 54 56 56 56 58 59 61 64 65 63 63
52 52 52 53 53 53 53 53 53 53 53 53 51 48 46 51 55 54 50 47 44 46 43 38 47 44 53 56 54 55 55 53 49 49 58 46 43 48 49 50 51 54 59 59 57 57 59 58 59 60 62 64 64 64
53 52 52 53 53 53 53 53 53 52 53 51 46 45 51 53 53 48 44 43 44 42 42 44 47 45 56 51 53 55 53 53 50 52 53 44 40 46 53 54 56 60 60 61 61 61 62 62 62 63 63 64 65 65
53 53 53 53 53 53 53 52 52 51 48 47 46 49 49 49 46 42 43 46 43 44 47 44 50 49 52 55 54 56 53 54 46 56 52 42 45 50 53 55 57 59 61 61 62 61 61 61 63 63 64 64 64 65
52 52 52 52 53 53 53 52 52 52 51 50 46 44 42 44 36 37 37 42 43 48 48 46 47 47 55 55 53 53 50 48 57 49 42 45 49 52 53 57 58 60 62 62 62 63 64 64 64 63 63 64 65 65
52 52 52 52 53 53 53 53 53 51 48 44 40 35 37 36 39 41 42 43 48 48 50 48 47 48 53 53 50 49 51 53 46 42 39 46 50 53 54 56 58 58 60 62 62 63 63 63 63 64 64 64 64 64
52 52 52 53 53 53 53 53 51 50 46 41 41 33 35 40 45 47 49 48 50 50 48 49 51 52 51 52 52 53 47 42 43 41 45 51 51 54 55 56 57 58 58 60 61 61 62 62 63 64 64 64 64 64
52 52 53 53 52 53 51 51 51 50 46 43 42 40 43 44 47 48 49 49 52 48 52 55 51 49 46 48 46 43 43 38 42 49 52 52 52 54 55 56 57 58 59 60 60 61 62 62 61 61 63 64 64 64
52 52 53 52 52 51 51 51 49 47 46 46 45 48 45 43 44 49 49 51 53 53 49 51 45 41 50 46 44 47 41 44 50 53 53 54 54 55 56 57 58 58 59 60 59 60 60 61 62 62 62 63 63 63
52 54 52 53 52 50 53 52 50 50 46 49 44 46 46 47 47 51 52 52 51 51 50 46 51 46 43 40 42 47 50 51 54 55 56 56 55 56 56 57 57 58 59 60 60 61 61 62 62 63 61 62 63 64
52 53 53 53 52 50 47 50 49 45 47 46 46 47 47 49 52 51 52 52 51 53 53 51 47 45 44 48 50 52 54 55 55 55 56 55 55 55 56 57 58 59 59 60 61 63 63 62 64 66 67 66 67 68
51 52 52 52 53 49 47 47 51 47 43 45 48 47 47 49 50 51 53 51 51 53 50 47 47 48 48 51 51 53 55 54 53 54 56 56 58 58 58 58 60 59 62 61 63 52 64 65 66 65 66 65 66 68
51 53 52 53 51 49 46 44 46 44 44 44 46 45 46 50 49 47 48 50 52 47 48 50 51 53 52 52 53 53 53 53 53 54 55 56 59 57 55 60 60 61 60 61 61 61 59 61 62 64 64 65 66 66
50 51 50 51 47 47 46 47 44 45 46 47 47 46 44 44 44 47 47 50 47 49 50 51 51 49 50 52 52 53 55 56 57 56 49 53 56 57 59 59 60 58 58 58 60 60 61 62 62 64 64 64 61 65
50 49 48 48 44 41 40 49 45 46 41 42 46 45 45 45 46 51 46 43 44 47 49 49 53 54 52 56 56 56 57 56 57 59 59 59 60 59 59 59 61 60 59 58 60 61 60 52 59 61 62 62 62 62
49 45 42 41 42 38 45 44 47 45 44 41 41 39 42 42 47 46 42 45 50 50 53 53 53 54 56 55 52 54 53 56 58 56 57 60 59 57 58 58 59 60 59 60 60 60 60 59 52 60 60 60 60 60
40 38 40 34 42 42 42 42 43 43 40 42 41 42 44 44 43 45 46 49 50 51 52 53 54 55 54 58 60 60 58 60 60 60 59 61 60 61 61 61 61 59 60 59 57 58 58 59 59 59 59 59 57 57
36 42 38 42 42 42 42 41 42 41 41 42 44 47 47 47 46 46 50 52 54 53 55 55 55 56 56 57 58 58 58 60 62 61 60 60 60 60 58 57 57 59 61 59 58 57 57 58 58 57 57 56 48 55
40 44 46 47 45 44 44 45 46 43 42 44 46 46 48 45 46 49 53 53 54 54 56 57 57 56 56 56 57 58 59 58 56 56 58 59 60 59 58 56 55 57 58 59 58 57 56 56 56 56 56 57 58 57
46 46 43 46 43 47 44 46 44 45 48 51 50 47 46 45 42 48 51 53 54 54 57 58 58 58 58 56 57 56 57 58 61 61 62 62 61 59 57 58 57 44 53 56 56 57 56 56 55 54 54 53 54 55
46 51 48 47 46 47 47 49 51 54 55 55 51 47 47 49 52 53 55 58 58 58 56 56 55 58 57 58 57 56 55 54 52 50 49 50 52 55 57 57 57 57 57 57 40 46 50 51 52 52 51 52 52 52
53 53 51 53 52 52 54 57 54 56 56 54 53 51 49 51 54 57 57 56 54 54 55 55 55 54 52 52 52 53 55 54 52 49 47 47 48 52 53 53 53 54 55 55 54 54 45 50 48 52 50 49 49 48
56 56 54 54 52 54 54 58 59 58 56 51 52 48 47 51 53 54 53 51 51 53 53 52 52 51 50 49 48 48 47 50 49 49 49 51 51 50 50 51 52 52 52 51 50 50 49 48 48 47 46 45 45 44
56 54 53 52 52 55 56 56 55 54 51 48 46 48 49 48 47 48 52 52 51 53 48 51 49 48 50 51 50 49 42 48 47 47 46 47 47 48 49 50 50 50 49 48 47 47 46 45 45 44 43 43 43 43
55 56 57 55 54 53 55 56 52 49 48 46 48 50 50 50 47 52 55 53 53 53 53 52 52 51 49 49 49 48 46 49 44 38 38 37 37 39 46 47 47 46 46 45 45 45 44 42 43 42 42 42 42 42

GFSWCAN_sfc_temp_024.txt.gz
Temp
54 54 54 54 54 54 54 55 55 55 55 56 56 56 56 56 56 51 49 51 45 40 44 53 57 51 49 48 42 53 52 54 53 48 52 57 63 65 67 70 65 64 64 67 70 63 60 71 74 70 70 78 80 82
54 54 54 54 54 54 54 55 55 55 55 55 56 56 56 56 55 53 46 52 53 42 43 57 58 61 59 59 54 53 52 51 48 47 50 51 56 65 66 61 73 65 73 71 68 69 69 72 69 74 76 75 79 81
53 53 53 54 54 54 54 54 54 54 55 55 55 56 56 54 52 53 50 49 49 42 45 54 55 64 67 65 66 49 56 54 49 57 50 49 48 61 58 63 69 68 74 70 65 65 68 72 72 75 78 77 79 83
53 53 54 54 54 54 54 54 54 55 54 55 55 56 55 56 55 55 51 53 49 44 41 54 68 62 69 70 65 62 60 54 49 49 50 47 47 64 56 61 60 59 64 67 65 65 66 67 70 74 74 78 79 82
53 53 53 54 54 54 54 54 54 54 55 55 55 55 55 53 53 54 55 56 55 46 45 51 61 66 68 65 63 62 60 52 45 43 47 45 51 54 59 58 48 51 51 66 66 69 67 63 66 70 68 72 74 74
53 53 53 53 54 54 54 54 54 54 54 54 54 54 55 54 53 54 52 48 53 52 42 40 60 59 64 64 61 59 59 57 47 48 49 49 54 50 52 47 51 54 59 62 65 68 65 63 61 68 66 68 71 75
53 53 53 53 53 54 54 54 54 54 54 54 54 54 53 53 54 50 50 51 52 49 39 38 44 61 63 63 61 60 58 57 58 49 49 49 50 56 51 43 49 55 60 65 68 66 57 56 53 61 68 71 69 71
53 53 53 53 53 54 54 54 54 54 54 54 54 53 53 53 52 48 49 51 53 44 42 37 39 52 65 56 54 60 50 49 53 54 49 48 50 56 44 48 53 54 57 54 58 61 57 59 58 58 69 70 69 70
53 53 53 53 54 54 54 54 54 54 54 53 53 53 57 55 52 48 53 53 50 43 34 37 39 44 67 60 56 55 54 50 62 51 49 49 46 43 46 48 51 54 53 51 53 54 57 58 58 61 66 67 69 66
53 53 53 53 53 53 53 53 54 53 53 53 57 56 51 56 54 55 50 46 48 46 42 38 56 51 61 60 52 47 57 53 44 49 51 45 44 49 51 51 52 54 54 54 51 51 53 54 60 63 65 68 69 70
53 53 53 53 53 53 53 53 53 53 55 58 52 49 59 58 58 55 48 45 43 37 39 45 54 51 63 52 54 60 54 57 45 47 48 42 40 47 52 52 54 58 62 62 63 62 61 63 63 67 68 70 72 71
53 52 52 53 53 53 53 53 53 57 54 51 48 50 53 54 54 47 49 52 50 43 49 49 53 57 59 65 58 61 57 58 46 55 47 40 44 50 53 54 57 62 66 67 68 65 67 69 68 69 70 71 71 71
52 53 52 52 53 53 53 53 53 53 54 57 51 49 49 52 38 39 38 43 41 51 53 54 54 60 63 65 62 61 54 49 61 49 40 44 48 51 53 57 62 66 66 67 69 69 68 68 70 70 69 72 72 71
52 52 53 53 53 53 53 52 52 54 55 48 42 35 36 37 41 43 44 45 49 52 50 52 54 58 62 60 59 53 57 60 48 41 39 46 49 51 57 61 66 66 68 70 70 70 70 69 69 70 71 72 72 70
52 52 52 55 54 53 52 52 52 60 54 43 41 33 40 46 49 54 57 57 59 58 52 53 58 60 59 54 56 55 52 43 43 40 45 51 53 57 61 62 64 65 67 69 70 70 70 70 70 69 71 72 72 71
52 53 59 54 53 53 52 57 61 59 55 52 48 47 51 52 55 58 58 58 63 60 62 62 59 55 52 52 51 47 45 39 43 48 52 55 56 59 61 63 63 64 66 67 69 70 71 70 69 70 72 71 72 71
52 61 54 53 53 53 53 61 63 55 56 53 52 59 57 56 55 58 59 59 63 63 57 60 50 48 60 50 42 43 41 47 52 54 58 59 59 60 63 65 65 65 65 67 68 69 69 70 72 71 69 70 71 71
61 62 55 53 54 59 65 62 59 58 52 57 54 55 57 60 58 59 60 61 59 59 59 52 59 49 47 42 41 44 50 54 54 59 61 60 61 62 64 64 65 66 66 67 68 69 70 70 70 71 70 71 73 73
56 56 53 52 54 57 57 59 59 52 55 56 57 60 60 61 62 62 64 63 62 63 63 60 53 48 47 49 50 54 58 57 57 62 63 62 64 64 64 65 66 66 65 66 66 69 70 69 70 73 74 75 74 75
52 53 52 53 55 59 54 56 63 56 52 54 58 56 58 58 62 63 62 63 63 60 55 52 50 52 53 55 58 59 61 63 63 62 63 64 64 65 64 65 66 66 69 68 69 60 71 72 73 73 72 71 72 72
56 59 55 59 61 59 56 55 56 54 54 54 57 56 56 61 59 58 57 64 59 54 52 53 54 55 55 56 58 62 61 61 60 59 58 58 61 64 68 68 68 69 68 68 68 67 64 68 69 71 72 72 72 73
59 53 59 60 57 56 57 58 54 57 56 56 56 57 54 52 51 49 51 50 47 47 49 50 51 52 54 58 59 61 60 62 63 60 53 56 61 61 66 68 68 66 65 66 67 67 67 68 68 69 70 69 67 71
53 55 58 56 51 47 47 60 52 54 49 52 57 51 48 46 49 51 45 46 48 52 53 55 55 56 58 60 62 62 63 62 61 63 65 67 67 67 68 67 67 65 65 65 67 67 66 57 64 66 68 68 68 68
51 52 49 49 51 45 56 52 57 54 55 51 45 43 48 51 55 50 45 50 52 57 58 59 63 64 65 63 63 63 64 68 68 68 68 69 67 65 67 69 69 68 66 67 67 66 66 65 57 66 66 65 65 65
43 43 45 38 52 50 50 50 51 53 48 51 48 51 54 57 49 46 44 49 54 57 61 63 64 63 62 63 64 65 64 66 65 65 66 68 67 69 70 69 69 68 67 65 64 63 64 65 65 64 63 63 61 61
38 49 43 51 52 50 50 49 50 48 49 49 51 57 58 54 51 45 45 50 58 60 61 61 62 62 61 62 60 60 62 65 64 63 64 66 65 64 62 61 62 63 66 65 63 62 62 63 62 61 61 60 52 59
46 52 57 58 54 54 54 54 54 51 49 50 54 54 54 49 43 43 49 54 56 58 62 64 63 62 61 61 62 63 64 65 63 63 65 65 66 64 62 59 58 60 63 63 63 62 60 60 60 60 60 61 61 60
56 54 51 56 56 58 52 55 52 52 56 60 57 50 46 46 45 50 51 54 54 54 62 65 65 65 63 62 62 61 61 63 63 64 65 67 66 65 62 63 63 46 60 62 60 61 60 60 59 59 57 57 57 57
58 64 60 56 56 56 57 56 58 60 61 60 54 50 47 54 60 60 60 61 61 60 55 54 56 61 62 63 63 63 61 59 54 51 51 52 54 56 60 60 60 61 61 61 40 49 54 54 55 56 55 55 56 57
60 67 59 59 58 55 60 63 60 62 63 58 53 55 54 54 56 60 58 55 51 50 54 57 58 58 57 57 57 57 59 57 55 52 49 49 52 56 56 56 56 57 58 57 57 57 48 53 53 56 54 54 53 51
66 67 61 62 58 61 63 64 64 62 54 50 51 49 47 49 51 57 59 62 65 63 61 59 59 58 56 55 53 51 51 54 53 52 51 52 54 53 53 54 55 55 55 54 54 53 52 51 52 50 49 48 47 46
66 62 60 58 57 61 64 57 51 49 50 51 52 51 51 54 53 55 58 63 62 60 52 57 55 54 56 57 56 55 44 54 52 50 48 48 48 49 52 53 53 53 52 52 52 51 50 49 48 46 45 45 45 45
66 68 67 65 60 58 60 57 54 48 48 49 56 59 60 57 51 54 64 63 60 59 58 58 58 57 55 54 53 54 50 54 45 38 39 37 36 39 48 50 50 51 50 50 50 50 48 46 45 45 45 43 43 44

GFSWCAN_sfc_temp_027.txt.gz
Temp
54 54 54 54 55 55 55 55 55 56 56 56 56 56 56 57 56 57 54 55 44 40 44 53 57 54 54 53 49 49 56 54 54 47 49 57 59 63 64 69 68 66 66 67 69 65 55 78 81 75 77 82 84 86
54 54 54 55 55 55 55 55 55 55 55 56 56 56 57 57 56 55 47 58 52 43 44 59 60 60 61 63 59 60 55 49 50 45 46 47 50 56 62 57 77 67 74 71 72 73 77 82 79 81 81 79 82 85
54 54 54 54 54 55 55 55 55 55 56 56 56 56 56 56 55 53 49 51 48 42 51 57 58 67 70 68 69 55 60 61 52 51 49 46 46 55 47 55 59 77 82 78 71 73 74 77 80 82 83 82 85 89
54 54 54 54 54 55 55 55 55 55 56 56 56 56 56 56 56 55 49 52 48 44 41 56 71 67 74 74 69 67 62 63 56 48 48 48 47 57 54 52 52 50 53 70 69 71 73 76 78 80 81 84 85 85
54 54 54 54 54 54 55 55 55 55 55 55 55 55 56 54 52 52 54 53 53 44 46 54 63 70 74 71 69 67 65 62 56 43 45 46 53 52 58 54 48 51 50 59 68 72 73 70 75 79 77 78 80 81
53 54 54 54 54 54 54 54 55 55 55 55 55 55 55 55 54 51 46 55 61 51 41 40 60 61 63 70 68 65 64 61 53 45 45 51 56 54 48 47 52 55 59 62 63 74 72 72 74 77 75 76 80 80
53 53 54 54 54 54 54 55 55 55 54 54 54 54 54 54 57 47 46 51 56 52 39 37 41 53 66 69 67 62 64 61 57 52 47 51 53 49 48 43 51 56 64 64 67 70 66 68 63 69 73 76 73 79
54 54 54 54 54 54 54 54 54 54 54 54 54 54 54 53 53 47 51 52 55 44 42 36 38 44 61 58 55 64 58 57 57 52 52 49 52 50 44 48 53 55 56 58 63 69 66 67 64 56 62 71 72 72
53 53 54 54 54 54 54 54 54 54 54 54 54 54 58 56 52 57 54 53 51 44 36 35 34 40 49 53 64 62 58 47 57 45 47 50 46 42 47 49 50 52 52 52 57 62 61 62 60 61 56 59 65 67
53 53 53 53 54 54 54 54 54 54 54 55 58 54 50 59 53 55 49 44 42 43 40 37 48 45 52 54 58 55 56 46 43 46 51 43 43 47 51 52 52 53 54 55 51 49 52 54 58 58 57 59 66 69
53 53 53 53 54 54 54 53 53 53 56 63 59 57 63 58 59 49 44 41 40 37 39 43 51 49 61 50 49 51 51 50 42 44 44 38 40 45 51 53 55 56 56 56 56 55 55 55 56 62 65 70 72 71
53 53 53 53 54 54 54 53 53 59 61 55 53 54 58 56 52 44 43 46 43 42 51 50 54 57 56 60 52 57 46 48 40 49 44 35 43 49 52 55 56 57 62 65 62 58 57 59 63 65 65 68 71 72
53 53 53 53 53 54 53 53 53 53 54 59 51 50 48 50 39 38 35 40 41 48 52 55 49 56 54 52 49 53 50 47 54 44 38 40 47 51 52 56 60 67 68 68 67 70 70 69 70 70 67 71 73 74
52 53 53 53 53 54 53 53 53 57 56 53 48 38 42 43 47 43 44 46 48 52 57 57 59 60 64 60 56 48 48 54 43 37 38 43 48 51 54 59 65 66 68 72 73 73 72 69 69 69 68 69 69 70
52 53 53 55 55 54 53 53 53 64 61 49 52 40 47 54 52 52 57 57 58 64 62 61 63 64 61 56 57 57 52 41 41 40 44 48 50 52 62 64 65 64 68 70 71 71 71 72 72 70 72 73 70 69
52 54 62 55 54 54 53 59 66 67 62 58 56 54 61 57 57 60 64 64 69 68 68 65 58 53 48 48 49 45 44 39 42 47 53 55 57 60 63 66 66 68 68 69 71 72 72 72 71 72 73 74 73 73
51 67 54 54 53 53 56 64 69 64 63 57 56 65 60 59 57 62 65 65 70 68 61 62 51 51 57 48 42 45 43 43 48 52 57 59 59 61 64 68 69 68 69 70 70 70 71 73 74 72 70 71 73 73
63 66 56 54 55 61 72 69 66 64 58 63 59 62 58 61 62 64 67 69 66 65 66 59 60 50 43 40 45 48 50 56 57 58 60 61 63 64 67 66 68 69 69 69 70 66 69 72 67 71 73 74 73 74
57 58 53 52 56 57 63 65 64 58 62 63 65 65 62 62 65 68 68 69 71 72 68 61 51 47 46 52 51 54 56 57 57 60 64 64 65 65 66 69 69 69 70 69 69 73 71 72 73 75 75 76 75 73
52 53 54 54 56 65 60 62 69 62 57 61 66 64 61 57 65 67 67 68 68 64 57 49 51 55 55 57 57 56 57 60 60 58 59 67 71 69 68 70 71 72 73 72 71 62 73 73 74 74 74 73 73 73
58 62 58 63 69 67 63 61 62 61 61 62 65 63 54 61 57 54 56 62 57 50 50 52 55 57 60 60 61 61 62 63 62 62 61 62 65 67 69 73 72 72 71 72 71 69 67 70 71 72 73 74 73 74
65 55 65 68 64 64 64 65 62 65 63 64 62 56 48 50 53 52 55 55 47 48 50 51 60 61 62 61 64 66 66 66 67 66 57 61 65 67 68 72 71 70 70 69 69 70 70 71 70 70 71 71 68 73
56 60 66 65 57 52 53 69 57 59 53 54 59 55 54 52 54 54 48 49 51 57 60 65 64 66 65 66 66 65 67 68 70 69 70 72 71 71 71 71 71 68 67 68 70 70 68 59 66 68 70 70 70 70
50 59 56 57 59 51 65 59 61 57 60 57 56 50 52 52 59 48 45 51 58 66 66 64 66 65 68 66 66 65 65 69 70 71 70 70 70 70 72 72 72 72 69 69 69 68 68 68 61 69 68 68 67 66
48 47 54 41 62 57 57 57 58 60 54 56 53 53 55 59 54 50 45 46 55 59 61 64 66 66 63 64 66 66 66 68 66 66 67 68 68 69 69 70 70 71 70 66 65 65 66 67 67 67 66 66 64 63
43 57 48 60 61 57 58 55 56 55 57 56 57 62 62 57 49 41 43 53 60 61 62 62 63 63 63 64 62 63 64 68 67 65 67 69 68 65 63 62 63 64 66 66 65 64 63 65 65 64 64 61 53 60
50 58 66 68 65 64 62 64 64 60 55 54 56 53 54 47 40 41 48 54 56 57 59 61 61 60 60 63 66 66 67 66 64 64 68 70 69 67 64 61 59 60 65 66 65 63 62 61 60 60 60 61 61 61
64 64 58 65 66 68 59 59 57 54 56 58 54 52 50 49 45 48 54 61 61 61 62 63 60 62 62 64 66 66 64 65 65 65 67 68 67 65 63 64 63 48 62 61 61 61 58 59 58 58 58 58 59 61
63 70 69 60 62 65 63 59 58 62 63 58 52 52 52 54 56 56 57 58 60 61 63 64 64 67 67 67 66 65 63 61 56 52 51 53 56 57 61 61 61 61 62 61 46 51 56 56 56 57 57 57 58 58
66 74 64 63 60 59 62 66 63 64 65 63 60 52 52 53 57 64 68 68 66 66 66 66 65 63 61 60 59 59 62 60 56 52 48 49 52 56 57 58 58 59 59 59 58 58 50 54 54 57 54 53 52 51
75 70 66 66 61 65 66 67 67 66 61 60 60 55 54 56 59 65 66 68 68 68 64 63 62 61 59 58 57 55 54 59 56 54 52 54 55 54 55 56 57 57 57 57 56 56 55 54 53 51 50 48 48 48
73 67 68 61 62 68 63 62 57 62 61 56 58 61 60 56 51 55 66 67 65 63 55 60 59 58 59 60 59 59 46 58 54 53 50 51 51 52 55 56 56 56 55 56 55 54 52 51 50 49 48 46 46 46
72 71 70 69 68 63 63 58 55 57 60 59 59 62 62 59 52 59 67 69 65 63 62 63 63 63 59 58 58 58 54 57 46 38 39 38 37 41 50 54 53 53 52 51 51 50 48 48 47 45 45 47 47 47

GFSWCAN_sfc_temp_030.txt.gz
Temp
54 54 55 55 55 55 55 56 56 56 56 56 57 57 57 57 56 55 55 55 48 39 47 53 56 51 53 54 46 47 47 53 56 47 43 43 45 56 58 64 61 62 62 64 66 63 60 87 85 76 78 83 84 86
54 54 55 55 55 55 55 56 56 56 56 56 57 57 57 57 57 56 49 57 52 43 47 57 59 62 61 60 55 56 49 45 51 46 47 46 46 47 54 51 69 58 67 65 68 70 71 73 79 82 84 82 83 85
54 54 54 55 55 55 55 56 56 56 56 56 57 57 57 56 56 55 53 52 51 43 49 55 55 63 67 66 68 53 56 59 56 54 44 46 47 51 46 52 58 64 61 65 69 74 78 79 81 85 85 83 86 89
54 54 54 54 55 55 55 55 56 56 56 56 56 56 56 56 55 56 51 53 48 44 38 52 69 64 71 69 67 66 62 63 58 56 48 46 47 56 47 48 49 52 56 57 64 75 77 79 82 83 85 86 85 85
54 54 54 54 54 55 55 55 55 55 55 55 55 56 56 56 54 56 59 57 52 43 40 49 57 65 70 68 69 68 64 60 50 50 42 44 50 49 51 51 51 54 51 53 56 56 58 73 79 82 80 80 82 80
54 54 54 54 54 55 55 55 55 55 55 55 55 55 55 55 55 55 44 51 53 49 40 37 61 60 60 53 65 65 65 62 61 47 43 47 55 51 46 48 53 55 56 58 53 58 55 72 75 80 78 80 81 80
54 54 54 54 54 55 55 55 55 55 55 55 55 55 55 54 57 48 46 50 54 53 41 37 42 56 60 62 67 63 67 63 61 51 46 49 49 51 50 47 50 52 55 57 57 58 55 58 67 75 76 78 76 81
54 54 54 54 54 54 55 55 55 55 55 55 55 54 54 53 53 50 53 52 53 45 42 35 38 45 58 54 57 64 55 56 56 54 49 46 49 50 46 52 52 52 54 56 58 62 62 64 67 67 70 74 73 74
54 54 54 54 54 54 54 55 54 54 54 54 54 55 57 53 50 50 53 52 50 44 37 36 35 35 55 51 55 50 54 49 54 47 46 47 46 44 48 51 49 50 51 55 60 64 65 64 64 63 62 64 64 68
54 53 54 54 54 54 54 54 54 54 54 54 58 55 48 53 55 54 48 43 41 41 38 33 38 39 52 52 53 52 51 46 42 45 48 42 42 48 52 51 51 52 53 55 56 56 61 62 62 63 59 58 56 58
53 53 54 54 54 54 54 54 54 53 53 62 56 57 61 58 55 47 43 39 39 36 40 41 45 45 51 45 51 55 49 45 38 43 43 38 38 44 51 51 53 54 55 54 55 57 59 59 60 61 62 61 60 60
53 53 53 53 54 54 54 54 53 59 61 55 53 58 60 52 46 42 40 44 43 41 48 46 47 50 48 51 46 48 44 45 38 50 43 36 41 49 51 53 55 55 59 61 63 63 64 63 62 60 62 64 68 67
53 53 53 53 53 54 54 54 53 53 55 59 54 53 53 52 40 36 34 39 42 49 53 54 47 48 50 50 47 47 43 42 51 42 35 39 46 49 51 53 55 56 57 64 64 64 64 65 67 66 65 64 65 67
52 52 53 53 53 55 54 54 54 57 59 56 52 39 48 45 43 40 42 45 55 57 58 57 51 47 51 49 50 45 48 50 39 36 34 41 47 51 55 60 65 62 62 65 66 69 69 66 64 65 66 67 67 65
52 52 53 56 55 55 54 54 54 63 60 56 56 41 47 56 61 60 52 51 56 55 59 60 61 58 56 53 54 52 46 37 38 36 42 47 50 51 58 64 66 63 64 65 71 70 68 68 69 67 66 66 66 66
52 53 61 55 55 54 54 59 64 70 66 62 60 55 60 56 59 62 64 64 69 58 63 63 56 53 52 50 46 42 41 38 42 46 49 51 54 58 60 64 63 65 66 67 66 68 66 68 66 67 70 70 69 68
51 65 55 55 54 53 57 65 72 67 65 60 58 64 60 60 56 63 63 67 73 67 57 57 47 48 57 45 41 45 40 44 47 50 52 53 54 56 59 64 66 64 64 63 64 62 67 64 69 70 68 70 70 72
62 66 57 54 54 61 73 72 68 66 59 64 59 61 61 63 56 61 68 71 67 64 63 56 59 47 42 40 42 46 49 52 55 55 56 60 60 62 62 62 64 68 68 66 62 67 65 63 65 67 68 69 70 68
58 58 53 52 56 56 66 67 67 60 62 65 63 64 65 63 63 69 69 70 70 69 64 58 50 46 47 50 51 52 54 53 50 57 59 62 65 66 65 66 67 68 68 67 66 68 71 70 71 73 73 69 70 71
52 53 53 54 56 65 63 65 72 64 59 60 63 63 57 60 63 64 65 64 65 61 55 51 49 51 52 54 57 57 59 58 57 56 56 55 62 68 68 69 66 67 68 71 71 62 72 71 72 72 72 70 71 71
57 64 58 64 70 69 66 64 64 65 63 56 62 62 54 60 59 59 58 63 57 50 50 53 53 55 59 59 58 61 62 65 60 64 63 57 55 67 68 71 71 73 71 70 69 69 67 68 69 70 71 71 71 73
67 57 67 71 67 67 66 70 65 66 60 61 62 61 53 51 55 57 62 57 54 53 56 62 64 65 63 61 63 63 64 66 67 67 58 63 67 68 69 71 70 69 69 68 69 68 68 69 68 70 70 69 67 72
59 60 68 69 61 53 54 70 59 62 56 58 59 55 54 54 56 63 53 53 55 60 62 64 62 64 65 66 64 63 64 65 68 67 67 69 69 70 71 70 71 68 66 67 69 68 67 60 65 68 69 69 69 68
53 62 60 61 63 52 65 62 67 62 62 60 56 52 54 56 62 50 46 50 53 64 63 61 64 64 65 63 64 63 64 67 67 67 67 67 66 67 69 69 70 69 67 67 67 66 67 66 60 68 68 67 66 65
50 50 56 42 65 61 59 60 60 62 56 58 56 54 54 57 53 47 47 52 57 60 61 63 64 64 62 63 64 64 65 66 64 63 66 68 68 67 65 66 67 64 65 63 63 64 64 65 65 65 64 62 61 62
43 62 50 63 62 60 60 57 58 57 58 56 56 61 59 47 47 41 44 53 56 58 59 61 61 60 61 63 62 63 63 65 64 62 64 68 65 62 60 59 59 58 63 64 62 60 60 61 61 60 59 58 53 58
50 60 67 72 68 66 62 64 65 60 55 51 52 55 57 47 41 43 50 59 59 61 63 62 63 63 63 64 66 66 65 65 61 61 65 67 66 64 61 58 56 57 62 62 61 60 58 58 57 57 57 58 60 60
67 67 56 60 63 61 57 60 57 55 57 59 59 52 49 47 46 56 59 64 65 66 67 68 69 68 66 66 66 65 63 63 62 61 63 64 64 62 61 62 61 47 60 60 59 59 58 56 56 56 56 56 56 57
57 61 61 60 64 64 62 59 58 64 67 65 57 54 53 56 61 64 65 67 68 67 65 66 66 67 66 66 65 64 63 60 53 49 49 50 52 55 59 59 59 60 60 59 49 51 55 56 56 56 55 55 55 54
65 56 57 65 63 59 60 67 64 67 67 65 62 60 59 61 66 68 65 67 67 66 66 66 65 63 60 60 59 59 62 60 56 51 47 48 51 55 56 57 57 58 58 58 58 58 49 54 52 55 53 52 51 50
77 74 68 67 62 67 67 68 69 68 67 65 66 60 58 57 59 67 67 68 68 68 65 63 63 62 59 58 56 55 54 58 55 54 52 54 54 54 55 56 57 57 56 56 55 55 53 52 52 50 49 49 48 47
75 71 68 62 65 70 71 69 67 63 62 64 60 60 56 52 51 60 68 68 67 65 57 62 61 60 61 61 61 60 49 58 55 54 52 52 52 52 54 55 55 55 54 54 53 53 51 50 49 48 48 48 48 47
73 73 72 70 66 65 67 64 62 60 62 59 58 59 60 57 52 61 69 70 67 65 63 64 65 64 61 60 59 59 55 56 48 41 40 39 38 42 50 54 53 53 53 53 52 51 50 49 49 48 48 48 47 48

GFSWCAN_sfc_temp_033.txt.gz
Temp
54 55 55 55 55 55 55 56 56 56 56 57 57 57 57 57 57 53 51 53 46 39 43 47 49 46 47 48 41 46 44 41 43 40 41 39 38 44 43 53 51 49 47 54 55 50 49 72 75 66 66 72 74 75
54 55 55 55 55 55 55 55 56 56 56 56 57 57 57 57 57 56 47 54 52 44 43 51 51 54 53 54 49 50 45 42 42 40 40 39 41 44 44 44 59 47 54 48 54 56 64 68 69 69 71 71 73 73
54 54 54 55 55 55 55 55 55 56 56 56 56 56 56 56 56 55 49 51 49 43 44 47 47 57 60 58 58 45 49 53 48 46 43 40 39 46 41 44 48 53 54 53 53 56 56 71 67 68 76 76 78 75
54 54 54 54 55 55 55 55 55 55 56 56 56 56 56 56 56 55 49 50 48 44 37 43 60 55 62 61 62 58 56 58 50 46 44 42 40 48 44 45 46 49 51 49 52 55 57 64 59 71 76 76 74 75
54 54 54 54 54 55 55 55 55 55 55 56 56 56 56 56 55 54 55 53 50 43 37 40 49 57 59 59 60 62 58 55 46 39 42 40 45 46 48 48 46 51 48 47 47 53 54 55 57 61 69 71 71 71
54 54 54 54 54 54 55 55 55 55 55 55 55 55 55 55 55 52 44 49 53 49 40 35 52 53 55 55 54 53 59 56 54 46 43 44 49 47 44 44 49 51 53 54 53 57 55 57 58 59 60 69 72 72
54 54 54 54 54 55 55 55 55 55 55 55 55 54 55 54 53 47 44 49 50 48 40 36 40 55 56 55 56 57 59 56 54 47 44 45 47 48 46 44 50 53 54 55 58 59 54 54 53 57 62 71 70 71
54 54 54 54 54 55 55 55 55 55 55 55 54 54 54 54 51 46 51 53 51 45 42 34 36 44 53 48 50 58 54 53 52 49 47 46 47 47 44 49 51 52 53 55 55 57 54 55 57 56 59 65 64 65
54 54 54 54 54 55 54 54 54 55 54 54 54 54 53 49 46 48 53 51 49 44 37 36 33 37 49 48 50 48 49 44 50 45 45 45 44 42 46 48 49 50 50 53 54 56 58 57 56 57 57 58 60 62
54 54 53 54 54 54 54 54 54 54 54 54 53 52 47 49 55 53 46 42 40 40 36 33 39 36 49 46 44 45 47 44 41 44 46 40 41 48 50 50 50 50 51 52 53 53 56 56 57 57 57 58 57 58
53 53 53 53 53 53 53 54 55 54 54 58 54 53 56 56 50 47 42 38 36 34 36 37 39 38 51 43 44 47 44 42 35 41 40 38 38 45 50 50 51 51 51 51 52 54 55 56 57 58 59 60 59 58
53 53 53 53 53 53 53 54 54 55 56 52 50 53 56 49 46 41 41 43 40 39 42 41 44 46 47 50 45 46 41 43 38 47 39 34 41 48 49 52 52 53 54 54 56 57 59 61 61 59 59 60 61 60
53 53 53 53 53 53 54 54 54 54 54 58 50 48 47 44 35 36 35 39 41 47 48 47 45 47 48 48 44 43 41 41 48 38 33 38 45 47 49 51 54 55 55 55 59 62 62 63 64 61 59 60 59 60
52 52 52 53 53 54 55 55 54 55 56 54 51 38 44 42 37 39 42 44 49 51 50 49 48 46 48 46 47 44 46 45 37 34 35 42 45 48 52 53 54 57 57 60 62 64 64 63 61 62 63 63 63 61
52 52 53 55 55 55 55 54 54 60 58 54 54 41 48 54 58 55 53 49 51 54 54 53 54 52 50 49 48 47 41 35 37 36 41 47 50 51 54 59 61 61 61 62 64 63 64 63 62 62 64 64 64 64
52 53 59 55 56 55 54 56 63 64 63 60 57 51 55 53 53 57 59 57 65 62 60 59 53 50 46 45 43 40 38 36 41 46 49 50 51 55 57 59 59 60 61 61 61 61 61 61 62 62 63 63 63 63
51 54 56 56 54 53 57 59 65 65 63 60 53 62 55 53 51 52 60 60 66 61 53 53 45 42 47 42 40 43 39 43 46 49 51 52 53 56 57 58 61 61 61 60 60 61 61 63 64 63 62 62 62 63
55 62 57 55 53 57 66 66 65 64 58 57 53 54 56 56 54 59 61 62 60 58 57 52 54 45 41 40 42 45 48 50 51 51 52 54 56 58 58 58 60 61 60 60 61 62 64 63 61 61 60 63 64 64
55 55 53 53 53 52 59 65 64 57 58 58 56 56 57 59 58 62 62 62 62 62 58 52 46 42 43 47 46 48 49 49 47 49 52 56 56 58 60 61 61 61 60 60 59 61 63 60 62 63 64 64 62 62
52 53 54 55 55 60 62 62 68 61 55 55 56 56 58 58 61 62 61 60 60 57 52 48 47 48 48 50 51 51 53 55 52 51 52 58 59 60 60 61 61 62 63 60 61 58 62 61 62 62 62 59 60 60
58 63 59 63 64 62 65 62 60 60 59 54 58 57 54 61 58 56 57 60 55 52 50 51 53 56 56 56 58 58 57 58 56 58 55 55 59 61 61 62 62 63 62 62 61 60 58 58 58 60 60 61 61 63
65 59 64 68 66 65 61 66 60 60 59 60 59 59 55 53 53 53 57 54 51 51 53 56 57 59 56 55 55 56 56 57 58 60 58 61 60 61 62 63 62 61 60 60 60 59 60 61 58 62 59 59 59 60
59 59 63 67 62 49 51 69 61 62 55 54 58 55 54 54 54 59 50 51 52 56 59 59 58 59 58 58 57 56 57 57 59 59 60 62 62 62 61 60 59 57 57 58 60 60 59 54 59 60 61 60 59 58
53 60 59 58 59 49 63 58 64 61 58 52 52 49 51 53 59 53 47 50 53 59 58 56 59 57 58 57 57 55 57 60 59 60 60 60 60 58 59 57 58 58 58 59 59 58 58 59 55 59 58 57 57 56
48 50 53 40 58 59 56 58 59 58 54 58 53 47 47 50 45 47 46 50 54 55 55 57 57 57 56 57 59 57 57 58 56 55 58 60 58 58 57 58 55 55 58 56 55 55 55 57 56 56 56 55 54 55
41 60 49 61 59 58 59 55 56 56 56 53 54 53 52 49 45 40 43 50 54 56 58 57 57 58 58 59 57 56 56 58 56 54 56 58 56 54 52 51 50 51 57 57 54 53 54 54 53 53 53 53 50 53
47 50 62 69 57 58 59 62 62 59 55 52 53 55 52 45 42 47 53 57 58 61 62 62 62 60 59 59 60 59 59 57 54 54 58 58 57 56 55 52 49 51 56 56 55 54 52 52 51 52 52 53 51 51
50 49 51 58 61 64 58 58 57 55 56 59 58 51 48 48 47 55 58 62 64 64 64 64 64 64 62 61 61 60 58 57 56 55 57 57 56 56 55 56 55 47 54 54 54 54 53 52 51 51 50 49 49 50
52 54 55 59 62 63 61 58 58 60 62 62 55 51 52 57 60 60 62 64 66 64 62 62 60 62 62 61 60 60 56 54 49 44 44 45 47 50 54 55 55 55 55 55 48 51 51 50 50 50 50 49 49 49
60 60 60 64 61 58 62 65 63 65 64 62 61 59 58 59 63 66 66 65 64 62 62 62 61 59 56 56 55 55 55 53 51 46 43 44 46 51 52 52 52 53 53 53 53 53 48 51 49 50 49 48 47 46
67 64 67 65 62 64 67 69 69 68 66 64 63 58 56 58 59 65 66 66 66 64 62 61 61 59 57 55 53 52 51 53 51 51 50 51 50 50 51 52 52 52 52 52 51 50 49 49 48 47 47 46 46 46
71 69 67 63 63 68 70 66 64 62 62 60 56 60 58 52 52 60 66 66 64 61 56 60 58 56 58 58 57 57 50 54 52 51 51 50 49 50 51 52 51 51 51 51 51 50 49 48 47 47 46 46 46 46
72 72 71 68 64 63 62 64 62 61 60 56 58 58 58 57 53 60 66 67 63 61 60 60 61 59 57 57 56 56 52 53 48 43 42 41 40 42 47 51 50 50 50 49 49 49 48 47 47 46 46 45 45 45

GFSWCAN_sfc_temp_036.txt.gz
Temp
54 55 55 55 55 55 55 56 56 56 56 56 57 57 57 57 57 48 44 46 44 40 43 47 46 41 42 41 36 39 40 39 38 36 36 37 32 36 37 47 47 44 43 43 50 47 45 62 63 62 63 65 68 70
54 55 55 55 55 55 55 55 55 56 56 56 57 57 57 57 56 55 43 46 48 43 42 47 49 51 48 47 38 38 37 40 40 35 37 36 36 40 36 37 52 42 49 46 49 48 54 57 53 58 67 67 67 70
54 54 54 55 55 55 55 55 55 56 56 56 56 57 57 56 56 54 43 44 44 41 42 41 40 50 53 52 52 38 42 47 43 43 40 38 33 37 36 39 44 50 52 49 53 55 54 57 56 57 60 67 69 69
54 54 54 54 54 55 55 55 55 55 56 56 56 56 56 56 56 55 44 45 45 43 36 39 51 47 54 54 51 50 50 52 48 43 38 37 36 42 40 43 43 49 51 48 50 53 55 57 55 56 65 70 70 70
54 54 54 54 54 54 55 55 55 56 56 56 56 56 56 56 55 51 47 48 49 42 36 39 45 48 49 49 52 53 50 48 43 38 37 36 42 42 45 45 43 50 46 46 46 51 52 53 56 59 61 63 65 67
54 54 54 54 54 54 55 55 55 55 55 56 56 55 55 55 54 46 40 47 50 48 40 34 41 43 47 51 49 48 51 50 42 41 41 44 46 41 40 41 48 50 51 52 51 56 55 55 57 58 59 61 65 63
54 54 54 54 54 54 55 55 55 55 55 55 55 55 54 54 50 43 41 47 49 47 39 36 33 43 50 47 46 47 51 51 48 42 42 43 45 46 43 42 48 51 51 54 57 57 55 55 53 58 59 62 63 63
53 54 54 54 54 54 54 54 54 54 54 55 55 54 54 53 51 46 48 51 50 43 41 34 34 37 47 43 44 51 49 50 47 45 45 44 44 45 42 46 49 50 51 53 54 56 56 56 55 56 58 60 58 59
53 53 53 54 54 54 54 54 54 54 54 54 54 54 50 48 44 46 53 51 48 43 36 35 32 33 47 46 47 46 47 41 47 43 44 44 43 41 45 47 48 50 50 52 54 54 54 53 53 55 57 57 57 56
53 53 53 53 53 54 54 54 54 54 54 54 50 48 43 48 55 52 45 41 40 39 37 32 39 35 43 45 43 43 45 41 39 42 45 39 39 47 49 49 49 50 52 54 52 50 53 53 54 54 54 55 56 56
53 53 53 53 53 53 54 54 54 54 54 49 44 45 48 55 49 46 41 37 36 33 34 35 38 37 46 41 41 45 42 41 35 40 38 36 37 44 49 50 50 51 52 53 54 54 55 55 56 57 57 57 58 58
53 53 53 53 53 53 53 53 54 49 47 47 47 49 50 47 44 40 39 40 38 37 39 39 42 42 45 48 44 44 39 41 36 44 38 34 41 46 48 50 51 52 53 54 55 55 56 57 57 57 57 58 59 60
52 52 52 52 53 53 53 54 54 53 51 48 45 45 45 43 37 32 33 36 38 45 46 44 44 46 47 47 43 42 41 38 45 35 32 37 43 47 49 50 53 54 54 54 55 56 58 58 60 58 57 60 60 60
52 52 52 52 52 53 55 54 54 52 49 45 45 39 41 41 42 40 43 44 49 47 47 48 47 46 47 43 46 42 42 43 36 32 37 45 48 50 51 53 53 55 56 59 59 59 59 58 58 60 59 59 58 59
52 52 52 52 56 55 55 54 53 50 49 46 47 40 43 47 50 52 52 50 53 50 47 47 48 48 45 45 46 44 40 34 36 38 43 47 49 51 52 55 56 56 56 58 60 59 60 60 61 59 61 61 60 59
52 51 52 55 55 54 53 53 54 52 51 50 49 44 47 48 49 52 52 52 59 59 53 50 46 44 42 43 41 38 36 35 40 45 47 49 50 52 52 55 57 59 57 59 61 60 59 58 57 57 58 58 59 61
51 47 54 55 54 52 54 52 54 56 54 50 46 49 46 46 45 50 54 54 60 56 49 48 43 40 45 41 39 43 40 44 47 48 50 51 50 50 53 55 59 56 55 59 61 61 59 61 63 60 58 59 58 60
47 51 55 54 52 51 52 55 55 54 50 49 45 46 47 47 50 53 56 57 52 49 51 47 49 42 40 38 40 44 46 47 49 49 50 51 52 52 54 55 55 58 55 55 59 60 59 58 56 56 58 56 61 60
50 51 53 52 51 47 50 56 54 51 50 47 47 48 51 49 54 56 56 56 57 54 49 46 44 40 41 44 44 47 48 47 47 49 51 53 53 54 56 58 58 58 57 55 55 54 55 52 54 55 56 55 53 56
53 53 54 54 54 50 52 52 55 52 48 47 47 47 50 50 53 55 54 55 52 48 47 43 43 45 44 44 45 46 46 49 46 45 49 54 57 56 55 56 56 58 56 54 55 52 55 56 57 53 53 54 54 51
54 56 57 55 52 51 52 50 50 50 49 47 49 48 46 49 50 50 51 53 50 47 43 43 43 48 50 53 53 54 53 52 52 51 46 49 54 55 54 54 56 55 53 52 50 51 51 50 51 54 52 50 50 52
53 57 54 57 55 54 51 53 51 50 49 47 47 48 45 43 44 45 48 47 44 44 44 46 48 47 49 48 48 51 50 52 51 53 52 52 50 50 50 51 51 49 50 49 50 50 50 50 52 53 53 50 50 50
54 54 52 56 53 45 48 53 51 50 47 46 48 48 45 43 45 47 41 42 44 47 48 47 47 48 47 48 49 49 50 51 50 51 51 51 50 50 49 49 50 48 48 49 51 50 49 49 51 51 51 51 50 47
54 51 50 49 49 43 54 53 55 51 48 46 44 42 45 45 49 44 40 40 46 47 46 47 47 46 46 46 46 45 45 49 49 50 50 48 46 45 47 47 49 49 47 46 48 48 49 48 47 49 49 49 49 49
43 47 46 40 50 50 50 50 49 48 46 47 44 42 42 48 42 39 39 40 43 44 46 47 47 45 43 42 43 45 46 47 45 44 47 47 44 45 44 44 45 46 46 45 45 45 45 47 47 47 48 47 46 47
39 51 48 52 51 52 51 48 48 47 48 47 45 46 48 46 41 36 38 41 43 49 47 47 45 44 43 43 41 41 41 44 47 43 42 46 46 43 40 40 40 44 45 43 43 44 44 45 46 46 45 45 43 45
43 47 48 52 52 52 51 51 52 49 48 45 46 46 48 42 41 40 43 46 47 53 55 52 49 47 45 45 43 43 44 47 43 40 42 43 45 44 41 39 38 40 43 47 45 45 44 43 43 43 42 42 43 43
48 47 47 50 50 53 50 50 49 46 46 49 48 44 44 45 40 45 47 54 56 54 54 51 49 50 47 45 45 43 42 43 45 43 43 43 43 44 44 44 46 44 46 44 45 45 43 43 42 43 42 41 40 42
48 50 50 48 53 53 52 50 48 49 49 48 45 43 44 47 49 49 51 52 53 53 49 46 46 47 47 48 45 43 42 40 39 36 36 34 35 38 42 43 42 43 43 43 45 44 45 43 42 42 42 40 40 40
52 52 50 54 53 50 51 53 51 52 51 50 49 47 48 48 51 53 52 51 49 47 47 47 46 45 43 42 40 40 40 40 39 37 34 33 35 38 40 40 41 41 41 41 42 42 43 43 42 41 41 39 38 37
58 57 56 55 53 54 56 57 56 54 53 50 50 47 46 48 53 52 52 50 50 49 48 46 45 45 44 42 41 38 36 39 41 41 40 38 38 39 40 40 41 41 41 41 41 41 41 40 39 38 39 39 39 38
58 55 54 54 51 56 56 54 53 56 55 50 48 49 48 45 47 47 52 52 49 47 48 46 44 43 44 44 45 43 43 41 41 41 40 40 39 40 40 40 40 41 42 41 42 41 41 40 39 39 38 39 38 38
59 60 59 56 53 54 54 53 52 50 49 48 49 49 52 48 45 48 51 51 49 47 46 46 47 46 46 46 45 44 44 43 43 42 43 42 40 39 36 38 40 42 41 41 40 40 40 40 38 39 38 38 38 38

GFSWCAN_sfc_temp_042.txt.gz
Temp
55 55 55 55 55 55 55 55 55 56 56 56 57 57 57 56 56 50 46 45 43 39 41 42 44 41 40 41 33 39 33 36 37 33 32 32 31 34 33 35 35 33 32 30 34 34 34 55 56 52 52 55 57 58
55 55 55 55 55 55 55 55 55 55 56 56 57 57 57 56 55 54 44 47 46 42 41 47 46 49 48 46 42 41 39 34 34 33 34 33 30 34 33 31 40 34 39 37 40 41 50 53 53 56 55 56 57 58
54 54 54 54 55 55 55 55 55 55 56 56 56 56 56 56 55 54 45 46 44 41 42 39 38 46 47 49 51 37 43 45 41 43 37 33 31 35 30 32 35 41 44 42 42 49 52 54 56 55 57 58 59 61
54 54 54 54 54 54 55 55 55 55 55 55 56 56 56 55 55 55 47 46 45 41 34 37 50 42 48 45 47 48 46 40 40 42 38 37 35 38 35 36 36 40 41 39 43 46 52 55 56 55 58 59 60 61
54 54 54 54 54 54 54 55 55 55 55 55 55 56 56 55 54 52 49 47 48 41 33 36 44 45 44 44 44 45 43 40 39 38 37 36 39 38 37 38 36 42 39 36 38 48 47 51 54 57 57 57 59 59
53 53 53 53 54 54 54 54 54 55 55 55 55 55 55 55 53 47 41 45 48 47 39 34 41 42 49 45 44 43 42 42 42 39 38 40 45 39 33 33 43 45 47 46 43 52 52 54 56 57 57 58 60 60
53 53 53 53 53 54 54 54 54 54 54 54 55 55 55 54 50 44 41 46 49 48 40 35 36 44 45 48 45 43 45 43 42 39 39 40 41 40 34 32 43 45 47 46 50 52 52 53 52 55 57 59 59 61
53 53 53 53 53 54 54 54 54 54 54 54 55 54 53 53 51 46 48 50 49 44 41 34 34 34 40 40 39 42 39 42 43 41 42 40 41 40 33 40 43 46 47 50 52 55 54 56 55 56 57 58 57 57
53 53 53 53 53 53 53 53 54 54 54 54 54 54 50 48 45 46 53 52 48 43 35 35 32 29 42 41 42 44 45 39 45 40 41 42 37 33 38 40 43 47 49 51 53 54 54 54 55 55 55 55 55 55
53 52 52 52 53 53 53 53 53 54 54 54 50 46 41 47 54 52 46 41 40 39 38 32 38 35 37 43 42 42 44 40 37 41 44 37 35 42 46 48 49 51 51 53 51 50 52 52 53 53 53 54 56 56
52 52 52 52 52 53 53 53 53 53 52 44 44 41 49 54 47 45 39 35 33 33 34 35 36 36 45 38 41 42 40 39 33 37 37 33 34 42 48 49 51 53 55 54 54 54 54 54 54 55 55 57 57 57
52 52 51 52 52 53 53 53 53 51 46 48 47 49 47 46 44 40 39 38 35 35 39 37 40 39 41 44 41 42 35 35 33 41 34 32 41 48 50 50 52 53 55 55 57 56 57 57 57 57 56 57 58 57
52 52 52 52 52 53 53 54 53 53 51 49 46 46 46 45 37 35 33 39 42 45 46 42 42 43 45 46 43 42 38 37 43 35 32 41 46 48 49 50 51 54 55 55 55 57 57 57 57 57 56 58 59 58
52 52 52 52 52 54 54 53 53 51 47 44 44 38 42 41 42 41 41 42 47 47 47 46 46 46 46 44 45 41 41 42 36 32 36 44 46 46 47 48 48 48 51 51 52 53 53 54 54 55 56 58 57 56
52 52 52 52 55 54 53 53 53 49 48 44 46 37 42 45 47 48 47 46 50 51 47 45 44 44 44 44 44 41 39 33 37 37 43 46 48 47 47 49 48 48 49 50 53 53 52 53 52 52 54 56 57 56
52 52 52 54 54 53 52 51 52 52 50 49 45 41 44 42 45 47 48 47 53 53 50 48 44 42 40 41 39 37 34 33 39 43 46 47 47 46 47 51 53 53 50 50 53 54 56 55 54 52 54 56 57 56
51 48 54 53 53 52 53 53 53 52 48 46 42 43 41 40 40 44 48 49 51 51 41 45 40 39 44 38 35 38 37 40 44 43 45 46 44 44 47 50 51 52 51 52 53 53 53 55 54 53 51 52 54 54
46 49 53 53 52 49 52 52 52 50 45 43 40 42 41 41 44 47 48 51 47 42 43 40 43 38 35 33 34 38 41 43 45 43 43 44 44 46 49 49 49 49 48 49 50 50 50 50 48 49 51 52 52 52
48 51 52 53 51 48 51 52 51 45 43 43 43 43 43 43 46 48 51 51 52 46 42 40 38 34 36 39 39 40 39 39 41 42 43 45 46 45 46 47 48 47 47 46 47 48 49 48 47 48 49 50 48 48
52 53 53 54 53 50 51 48 50 47 43 45 43 44 42 42 43 47 49 48 42 40 39 36 37 39 40 42 38 38 39 40 42 41 42 43 44 45 44 44 44 45 46 47 47 46 47 47 48 47 48 46 46 45
52 53 54 52 51 50 49 46 46 45 44 44 43 43 42 43 42 41 41 42 41 37 36 40 39 39 39 39 40 39 40 39 39 38 38 38 41 43 44 46 46 45 44 43 43 44 44 42 44 45 46 46 46 46
49 53 50 53 51 51 49 46 47 45 45 44 46 47 42 40 39 40 40 39 37 38 39 39 38 37 38 39 38 38 39 41 40 40 42 41 40 41 42 41 43 41 41 40 41 41 42 42 44 45 45 44 46 45
52 51 50 52 50 45 46 48 47 45 44 42 43 43 43 44 44 43 41 38 38 40 39 39 40 39 39 40 40 40 39 39 38 37 39 39 39 38 39 40 40 40 40 40 40 41 41 41 43 44 45 44 44 44
52 48 48 46 47 42 48 46 46 44 44 45 44 37 40 41 46 41 37 38 40 40 39 41 40 39 39 39 37 36 37 37 37 38 37 38 38 38 38 39 39 40 39 40 41 41 41 42 42 44 44 44 43 42
46 46 46 39 46 47 46 46 44 44 41 42 41 40 40 41 38 36 35 38 40 42 42 41 40 39 38 37 37 37 38 37 37 37 37 37 38 39 39 39 39 38 39 41 41 41 41 42 42 43 43 42 42 42
41 47 45 46 45 47 45 44 44 43 43 42 42 42 41 39 38 35 36 39 40 42 44 42 40 38 38 37 37 37 38 37 37 37 37 36 37 37 36 36 37 39 41 40 42 42 42 42 42 42 42 42 40 42
41 45 46 46 46 46 45 44 44 43 43 41 41 42 41 37 36 39 41 41 43 45 46 45 42 41 39 37 37 38 37 37 38 39 37 37 37 38 38 37 37 38 39 42 43 44 43 42 42 42 41 41 41 42
47 45 47 46 46 46 46 44 44 42 42 42 43 41 40 41 39 42 44 46 45 43 42 40 40 40 39 39 38 39 38 38 39 38 38 39 39 38 38 39 39 39 41 42 43 43 43 42 42 42 41 40 40 41
47 46 46 47 48 47 47 46 45 44 45 44 43 41 42 43 45 46 46 44 43 42 42 40 38 38 38 37 38 37 38 38 39 36 35 33 35 38 38 39 39 39 39 42 40 41 43 42 42 42 42 41 40 41
49 48 47 48 48 47 49 48 48 47 45 46 46 45 46 46 47 46 46 43 43 43 46 42 38 39 38 38 38 38 38 38 38 38 35 35 36 38 37 39 39 39 39 41 41 42 41 42 41 42 41 41 40 40
48 48 48 48 48 49 49 48 47 49 49 46 46 46 45 46 48 46 45 44 44 47 45 40 39 39 39 38 37 37 37 39 39 41 40 39 38 38 39 39 39 40 40 41 41 41 41 40 40 40 40 40 40 39
48 49 48 48 47 48 49 48 47 48 47 45 44 45 46 44 44 45 44 44 48 48 45 42 41 41 41 41 41 40 40 41 41 42 43 41 40 40 39 39 40 41 41 41 41 41 41 40 39 39 39 39 39 39
52 50 50 48 46 47 48 48 46 46 45 43 44 45 47 49 46 46 46 45 48 46 43 43 43 43 43 44 43 42 40 42 42 39 39 39 39 39 39 40 41 42 41 40 40 40 40 40 39 39 39 39 39 40

GFSWCAN_sfc_temp_045.txt.gz
Temp
55 55 55 55 55 55 55 55 56 56 56 56 57 57 57 56 55 52 47 48 45 39 41 45 47 42 44 42 37 44 42 41 40 36 37 39 34 39 39 44 43 41 38 37 42 40 37 66 65 59 63 66 66 67
55 55 55 55 55 55 55 55 55 55 55 56 56 57 57 56 55 54 46 48 48 42 42 52 53 54 52 50 43 43 42 41 41 35 36 35 35 38 38 35 49 39 46 44 46 48 59 63 61 65 65 63 65 65
54 54 54 55 55 55 55 55 55 55 55 55 56 56 56 56 55 54 48 46 45 41 41 44 46 54 56 54 56 38 44 47 44 47 41 38 33 41 32 38 42 49 53 44 47 54 57 61 65 64 66 65 67 68
54 54 54 54 54 54 55 55 55 55 55 55 56 56 56 55 55 55 49 47 46 41 35 43 55 51 57 57 53 53 51 52 48 45 38 36 35 44 38 43 42 48 50 47 46 50 53 57 62 65 65 67 67 69
54 54 54 54 54 54 54 54 54 54 55 55 55 55 56 55 54 53 51 48 48 42 37 40 50 53 53 52 50 51 50 47 43 38 38 37 40 39 42 41 38 48 45 42 44 55 53 54 58 61 63 65 66 64
53 54 54 54 54 54 54 54 54 54 54 55 55 55 55 54 53 49 44 50 50 47 40 35 51 48 50 48 48 47 47 45 43 39 38 41 47 41 35 35 48 52 53 53 50 55 55 56 56 58 58 66 64 60
54 53 53 53 53 53 53 53 54 54 54 54 54 55 54 53 50 45 43 47 50 49 40 36 39 51 51 49 46 45 48 44 42 39 37 39 41 41 36 33 45 48 50 51 53 50 47 51 51 58 64 65 60 61
53 53 53 53 53 53 53 53 53 54 54 54 54 54 53 52 51 47 49 50 50 44 42 35 37 42 50 44 43 47 42 41 40 38 40 39 40 39 33 42 46 46 46 46 47 49 51 53 57 58 63 60 58 59
53 53 53 53 53 53 52 53 53 53 54 54 54 54 54 50 46 47 53 50 48 44 36 36 33 35 48 46 46 44 41 35 42 36 39 39 35 32 38 40 42 45 46 48 51 56 54 51 55 57 59 56 58 61
53 53 53 53 52 52 53 53 53 53 53 54 54 53 46 48 55 53 47 41 41 40 39 33 38 35 41 42 43 41 44 39 35 38 41 37 34 40 44 45 46 51 53 52 48 54 54 55 54 56 56 56 58 64
53 52 52 52 52 53 53 53 54 54 53 54 50 46 51 54 48 45 39 37 35 34 35 35 37 35 44 38 40 43 38 36 33 37 34 33 33 41 48 48 50 52 54 54 57 58 56 56 55 57 57 59 62 61
52 52 52 52 52 53 53 54 53 53 53 50 50 50 50 48 47 42 41 40 37 37 41 38 41 39 41 44 41 42 36 37 33 42 36 32 39 43 45 47 48 48 53 55 56 55 56 57 57 59 57 59 61 63
52 52 52 52 53 53 54 53 53 53 52 53 49 49 47 46 36 34 33 37 40 45 48 47 43 44 45 46 44 43 41 38 45 37 32 38 42 44 45 47 47 48 48 51 51 52 53 53 56 57 56 57 58 59
52 52 52 52 53 54 54 53 53 53 56 54 49 37 44 40 41 41 41 41 46 48 48 48 48 46 50 48 47 41 43 44 37 32 35 41 43 44 46 47 48 47 48 48 47 49 49 50 51 53 54 55 55 55
52 52 52 55 55 54 53 53 53 59 59 51 51 39 45 49 51 51 50 49 53 55 52 49 50 51 47 46 44 41 40 33 34 34 39 43 46 46 46 49 49 49 48 48 50 50 50 49 48 48 50 50 51 51
52 53 59 55 54 53 53 56 62 63 58 55 51 46 50 50 49 51 51 51 57 55 58 55 49 46 42 41 38 35 35 33 37 40 43 44 45 45 46 49 50 52 52 53 52 51 52 54 52 50 52 51 51 51
52 60 55 53 53 53 54 64 63 57 54 53 49 53 49 48 46 50 52 53 57 56 49 51 41 39 46 39 35 34 33 37 42 43 44 46 45 46 49 49 49 50 50 52 52 53 55 55 53 51 48 50 50 51
55 58 54 53 53 55 63 61 60 57 51 52 50 52 51 52 52 53 54 56 54 53 52 46 51 42 38 36 39 42 42 41 44 46 48 47 48 49 51 50 50 50 49 49 51 52 52 53 52 53 53 53 53 53
54 54 53 53 54 58 60 59 60 52 52 53 53 54 55 55 56 57 57 57 57 55 55 51 44 41 42 44 44 45 45 44 44 47 49 48 48 49 50 51 51 51 50 50 50 50 51 52 54 55 56 55 52 54
52 53 53 54 56 60 58 57 60 57 53 54 53 55 55 54 55 57 57 56 54 53 48 45 45 46 47 49 48 47 49 48 50 50 49 51 51 51 49 50 51 52 53 53 53 48 54 53 52 53 53 53 52 51
57 58 55 59 61 60 58 57 56 56 55 52 50 49 49 56 55 53 53 56 52 48 46 47 50 51 49 50 50 51 50 50 49 49 48 50 52 52 52 53 53 53 53 52 52 52 50 50 52 54 54 53 54 54
58 54 60 61 60 59 58 57 57 55 52 50 53 54 52 52 52 52 53 51 49 48 50 52 51 51 51 49 48 48 48 50 50 51 48 49 49 50 50 51 52 51 51 51 52 51 51 52 53 53 52 52 51 51
55 57 59 60 58 50 50 55 55 54 50 49 53 51 50 51 52 54 49 50 50 53 52 52 50 49 49 49 50 50 48 49 50 49 50 51 51 51 52 51 52 51 51 51 53 53 52 47 51 53 54 54 53 52
54 56 55 55 55 48 57 54 55 53 53 51 50 47 49 50 54 51 47 51 55 54 52 50 52 52 52 50 51 50 49 50 51 51 50 51 51 50 50 51 52 52 51 53 53 53 53 53 49 53 53 52 52 51
49 49 51 40 55 55 53 53 52 52 49 49 49 48 49 50 47 46 46 52 54 55 55 52 51 51 52 52 52 51 49 50 50 48 48 49 51 52 51 52 51 51 53 53 51 51 51 52 52 51 51 50 49 49
43 54 48 55 54 54 53 51 51 50 51 49 49 51 50 48 45 44 48 54 55 56 56 55 53 52 51 52 52 52 51 51 51 49 48 49 49 48 47 47 48 50 52 52 52 51 50 50 50 49 49 48 42 48
47 54 55 56 56 55 54 54 54 53 51 50 50 49 49 44 45 51 55 55 57 59 57 57 56 55 55 52 51 52 52 52 50 49 50 50 50 50 49 47 46 49 51 52 53 52 50 50 49 49 49 50 49 49
56 54 55 57 57 57 54 53 52 51 53 53 53 48 48 49 51 57 58 59 58 57 55 55 55 56 54 53 53 53 52 53 51 51 51 52 53 52 50 51 51 41 50 52 53 53 52 51 50 49 48 48 49 50
55 55 56 55 56 56 56 56 56 58 58 56 53 53 54 56 58 58 59 60 58 57 56 54 51 53 52 52 52 53 53 53 49 45 43 44 46 48 50 51 51 51 52 54 40 45 49 50 50 50 49 49 50 51
57 57 56 56 55 55 60 61 60 60 59 60 59 55 54 53 56 57 58 57 57 56 57 56 52 53 53 53 53 51 53 53 52 49 45 44 46 49 50 50 50 51 52 52 52 52 42 49 47 52 49 49 49 49
58 57 56 56 56 59 58 59 57 57 57 58 57 56 53 52 54 56 56 57 58 55 52 50 52 54 54 54 52 51 51 53 51 51 51 52 51 50 50 50 50 51 51 50 50 50 50 50 49 47 47 46 46 46
57 57 57 56 57 58 58 58 58 58 57 55 53 53 52 53 51 55 54 57 53 53 49 53 55 55 55 56 55 54 42 55 53 54 50 52 51 51 51 52 51 50 49 48 48 48 48 46 47 46 46 46 46 47
59 58 58 58 56 54 57 57 55 54 54 53 54 54 55 56 51 53 55 56 56 57 56 56 56 55 53 53 52 53 46 53 47 39 40 38 37 41 50 50 49 49 48 47 47 46 46 45 46 46 46 46 46 47

GFSWCAN_sfc_temp_048.txt.gz
Temp
55 55 55 55 55 56 55 56 56 56 56 56 57 57 57 57 56 53 50 49 45 39 42 46 50 41 46 45 40 47 49 50 51 41 44 46 44 50 47 53 51 50 47 49 50 48 46 72 71 62 66 71 73 74
55 55 55 55 55 55 55 55 55 55 56 56 56 56 57 57 56 55 49 49 49 42 42 51 52 54 54 53 46 44 48 48 54 44 46 40 41 49 47 42 58 47 55 52 53 55 66 70 69 73 73 69 70 72
55 55 55 55 55 55 55 55 55 55 55 55 56 56 56 56 55 55 50 47 46 42 42 44 49 61 65 62 63 43 47 51 51 56 46 47 38 48 42 48 51 55 60 54 53 60 62 66 70 71 71 70 73 75
54 55 55 55 55 55 55 55 55 55 55 55 56 56 56 56 55 55 49 48 47 42 36 47 62 56 63 63 60 59 56 56 55 54 43 40 36 52 45 50 50 57 58 54 54 59 61 64 67 68 70 69 69 72
54 54 54 54 54 54 54 54 54 55 55 55 55 56 56 56 55 54 52 49 50 44 39 44 58 61 60 57 56 56 54 51 46 41 39 39 49 46 51 50 47 56 53 50 50 60 61 62 68 70 65 65 67 68
54 54 54 54 54 54 54 54 54 55 54 55 55 55 55 55 54 58 50 53 52 49 40 38 58 56 56 53 51 51 52 50 47 40 39 43 51 44 38 39 53 60 62 61 56 62 64 64 66 68 65 66 68 69
54 53 53 53 54 54 54 54 54 54 54 54 55 55 55 53 58 51 51 50 51 51 41 37 45 57 54 50 46 46 48 45 42 39 37 38 39 40 36 34 48 53 54 56 58 58 55 60 59 64 64 65 65 70
53 53 53 53 53 54 53 53 53 54 54 54 54 54 53 52 51 50 52 51 53 47 44 37 41 49 52 44 41 44 40 41 40 37 38 37 39 38 33 41 44 45 47 48 50 53 52 55 57 58 62 64 64 65
53 53 53 53 53 53 53 53 54 54 54 54 54 54 60 53 49 48 54 53 51 45 37 36 34 35 48 45 47 42 41 35 40 35 35 38 34 33 37 37 38 45 44 45 49 50 50 49 51 56 60 60 64 66
53 53 53 52 53 53 53 53 54 54 54 55 56 61 51 50 56 53 48 43 44 42 39 33 37 35 41 43 42 42 44 38 36 38 42 34 34 39 44 46 47 52 61 51 46 46 51 53 53 54 58 63 60 59
53 53 53 53 53 53 53 54 54 54 53 62 61 57 53 55 49 47 45 39 38 36 37 38 39 37 46 39 40 42 39 38 37 40 37 35 34 41 44 45 48 49 54 58 60 60 63 59 59 57 58 58 59 59
52 52 52 53 53 53 54 54 53 62 63 58 56 55 53 52 55 51 45 45 42 41 50 42 44 42 43 45 42 45 40 41 39 49 39 33 39 45 45 45 47 49 50 51 52 55 59 57 56 57 58 58 58 55
52 52 52 53 53 54 54 53 53 54 56 61 60 56 53 53 39 35 34 38 40 50 55 52 47 50 48 46 48 50 45 43 50 38 32 38 45 48 47 47 48 50 49 49 51 52 51 51 52 52 53 57 57 55
52 52 52 53 54 54 54 53 54 57 63 64 57 39 49 46 48 45 46 49 54 54 57 58 54 53 58 51 48 43 47 51 40 33 34 41 45 46 51 52 53 51 50 48 48 50 50 49 48 49 50 51 53 56
52 52 53 57 55 54 54 54 54 70 68 59 60 43 50 56 60 59 61 61 63 63 62 62 62 62 55 51 50 46 44 35 35 34 39 47 48 49 49 52 53 55 55 54 50 48 48 49 48 47 48 49 50 51
52 53 65 55 54 54 53 63 71 73 67 62 57 56 58 58 58 60 60 60 65 66 68 66 57 53 51 49 42 36 36 34 36 39 45 51 51 51 51 53 54 55 57 57 58 56 51 48 48 48 49 48 48 49
51 71 55 54 53 54 57 74 72 64 62 58 58 63 61 59 59 60 62 61 67 63 57 59 48 45 57 48 39 41 37 37 39 47 56 52 50 51 54 54 54 55 53 56 58 59 58 57 56 51 48 50 50 49
67 69 57 54 55 64 75 73 68 64 56 63 59 59 62 63 61 62 64 64 63 60 59 53 57 49 45 41 43 49 52 54 55 56 56 54 54 55 57 55 55 55 56 56 58 59 58 58 58 57 55 57 59 59
60 58 54 52 56 66 70 68 69 60 62 66 66 65 64 63 65 65 65 65 65 66 63 58 50 48 49 52 51 53 55 55 55 57 58 57 57 56 56 57 58 58 58 57 55 58 59 59 60 61 60 58 57 58
52 53 53 54 58 71 64 66 70 65 62 64 66 64 64 62 64 65 64 64 62 60 55 52 51 53 54 55 56 55 56 57 58 54 56 59 60 59 57 58 58 58 59 59 60 53 59 57 59 60 61 58 57 54
59 65 59 64 73 73 69 69 66 66 64 63 62 64 62 66 62 60 60 64 58 55 52 56 57 58 57 57 58 58 57 56 55 55 54 55 59 59 59 59 60 60 59 58 57 56 56 58 59 60 58 58 60 60
69 56 70 71 71 68 68 69 67 66 65 63 64 65 62 60 60 60 63 59 56 57 59 59 59 60 59 55 56 55 55 56 56 57 52 54 55 56 57 58 58 57 57 58 58 57 57 57 59 60 60 60 58 58
58 62 70 69 65 57 55 69 61 64 58 60 64 59 60 59 61 63 59 61 60 63 64 63 59 58 57 58 59 57 56 55 57 56 56 57 59 58 58 58 58 56 56 57 59 59 58 51 57 59 59 59 59 58
53 64 62 64 64 54 66 63 67 64 63 61 58 54 56 59 63 61 55 60 62 65 64 58 60 60 60 55 60 58 57 59 58 58 57 56 56 57 58 58 59 59 58 60 59 58 58 58 52 58 58 57 57 56
52 53 57 41 64 61 59 59 59 61 55 57 55 56 59 61 57 55 54 60 63 62 63 64 62 61 59 61 63 59 57 58 56 55 56 56 56 57 57 58 59 58 59 57 57 56 56 57 57 56 55 54 54 54
44 60 50 62 63 60 61 55 56 56 58 56 57 62 62 59 51 50 59 63 63 63 63 62 61 61 62 62 60 59 57 60 58 56 55 56 55 53 52 52 53 55 58 58 57 55 55 55 55 53 54 52 45 53
50 59 66 69 68 66 64 65 65 62 56 56 60 57 57 51 52 59 64 65 67 67 68 68 65 64 62 61 60 61 61 60 56 55 57 57 57 57 55 52 50 54 57 58 58 56 55 55 54 54 54 55 55 54
66 64 60 65 65 69 60 62 59 57 61 66 63 54 54 55 57 66 68 68 69 68 67 67 67 66 63 62 62 63 61 62 59 60 63 61 61 59 57 58 57 42 55 57 56 57 56 56 55 54 53 53 54 55
63 68 67 62 64 65 64 63 64 70 72 68 62 62 62 67 66 68 67 68 69 68 62 62 62 63 62 62 63 64 63 60 55 50 49 51 52 54 57 57 58 58 59 59 38 46 51 53 53 53 53 53 53 52
66 69 65 64 62 63 70 73 71 74 73 72 71 66 66 63 65 66 66 66 66 63 63 62 63 64 62 61 61 60 63 62 59 55 51 50 51 56 56 56 56 57 57 55 55 56 43 51 49 52 51 52 51 51
72 68 64 65 65 72 72 74 72 71 70 69 70 65 65 63 63 65 64 66 64 61 60 58 60 63 62 60 58 56 57 60 58 57 56 57 57 55 55 55 55 55 54 53 52 52 51 51 50 50 49 48 48 48
68 65 66 62 67 70 69 68 69 67 69 65 65 66 64 62 58 61 65 66 60 60 52 61 62 59 62 62 62 61 41 61 59 58 56 56 55 55 55 55 53 52 51 51 50 50 50 48 47 47 47 47 47 48
68 69 67 67 66 63 67 65 64 63 64 63 64 64 64 62 56 60 65 66 66 65 64 63 63 61 60 59 59 58 51 58 48 39 40 38 37 43 53 53 51 50 49 48 48 48 47 47 47 48 47 47 48 49